Time,TemperatureF,DewpointF,PressureIn,WindDirection,WindDirectionDegrees,WindSpeedMPH,WindSpeedGustMPH,Humidity,HourlyPrecipIn,Conditions,Clouds,dailyrainin,SoftwareType,DateUTC
2013-02-20 00:00:00,39.7,38.9,29.93,WSW,249,0.0,0.0,97,0.00,,,0.15,Wunderground v.1.15,2013-02-20 05:00:00,
2013-02-20 00:01:00,39.7,38.9,29.93,WSW,249,0.0,0.0,97,0.00,,,0.15,Wunderground v.1.15,2013-02-20 05:01:00,
2013-02-20 00:03:00,39.7,38.9,29.93,WSW,239,0.0,0.0,97,0.00,,,0.15,Wunderground v.1.15,2013-02-20 05:03:00,
2013-02-20 00:07:00,39.6,38.8,29.93,West,276,0.0,0.0,97,0.00,,,0.00,Wunderground v.1.15,2013-02-20 05:07:00,
2013-02-20 00:11:00,39.7,38.9,29.93,SW,214,0.0,0.0,97,0.00,,,0.00,Wunderground v.1.15,2013-02-20 05:11:00,
2013-02-20 00:12:00,39.7,38.9,29.93,SW,214,0.0,0.0,97,0.00,,,0.00,Wunderground v.1.15,2013-02-20 05:12:00,
2013-02-20 00:17:00,39.8,39.0,29.93,SSW,208,0.0,1.0,97,0.00,,,0.00,Wunderground v.1.15,2013-02-20 05:17:00,
2013-02-20 00:19:00,39.7,38.9,29.93,SSW,208,0.0,1.0,97,0.00,,,0.00,Wunderground v.1.15,2013-02-20 05:19:00,
2013-02-20 00:22:00,39.6,38.8,29.93,SSW,208,0.0,0.0,97,0.00,,,0.00,Wunderground v.1.15,2013-02-20 05:22:00,
2013-02-20 00:23:00,39.6,38.8,29.93,SSW,209,0.0,0.0,97,0.00,,,0.00,Wunderground v.1.15,2013-02-20 05:23:00,
2013-02-20 00:24:00,39.6,38.8,29.93,SSW,209,0.0,0.0,97,0.00,,,0.00,Wunderground v.1.15,2013-02-20 05:24:00,
2013-02-20 00:25:00,39.5,38.7,29.93,SSW,209,0.0,0.0,97,0.00,,,0.00,Wunderground v.1.15,2013-02-20 05:25:00,
2013-02-20 00:29:00,39.4,38.4,29.93,SW,231,0.0,0.0,96,0.00,,,0.00,Wunderground v.1.15,2013-02-20 05:29:00,
2013-02-20 00:30:00,39.4,38.4,29.93,SW,231,0.0,0.0,96,0.00,,,0.00,Wunderground v.1.15,2013-02-20 05:30:00,
2013-02-20 00:32:00,39.3,38.3,29.93,SW,231,0.0,0.0,96,0.00,,,0.00,Wunderground v.1.15,2013-02-20 05:32:00,
2013-02-20 00:35:00,39.3,38.3,29.93,SW,231,0.0,0.0,96,0.00,,,0.00,Wunderground v.1.15,2013-02-20 05:35:00,
2013-02-20 00:36:00,39.2,38.2,29.93,SW,231,0.0,0.0,96,0.00,,,0.00,Wunderground v.1.15,2013-02-20 05:36:00,
2013-02-20 00:38:00,39.1,38.1,29.93,SW,232,0.0,0.0,96,0.00,,,0.00,Wunderground v.1.15,2013-02-20 05:38:00,
2013-02-20 00:40:00,39.0,38.0,29.93,SW,231,0.0,0.0,96,0.00,,,0.00,Wunderground v.1.15,2013-02-20 05:40:00,
2013-02-20 00:42:00,38.9,37.9,29.93,SW,231,0.0,0.0,96,0.00,,,0.00,Wunderground v.1.15,2013-02-20 05:42:00,
2013-02-20 00:43:00,38.9,37.9,29.93,SW,231,0.0,0.0,96,0.00,,,0.00,Wunderground v.1.15,2013-02-20 05:43:00,
2013-02-20 00:44:00,38.9,37.9,29.93,WSW,242,0.0,0.0,96,0.00,,,0.00,Wunderground v.1.15,2013-02-20 05:44:00,
2013-02-20 00:49:00,38.9,37.9,29.94,WSW,238,0.0,1.0,96,0.00,,,0.00,Wunderground v.1.15,2013-02-20 05:49:00,
2013-02-20 00:50:00,38.9,37.9,29.94,WSW,239,0.0,0.0,96,0.00,,,0.00,Wunderground v.1.15,2013-02-20 05:50:00,
2013-02-20 00:51:00,38.8,37.8,29.94,WSW,252,1.0,1.0,96,0.00,,,0.00,Wunderground v.1.15,2013-02-20 05:51:00,
2013-02-20 00:52:00,38.8,37.8,29.94,West,266,0.0,1.0,96,0.00,,,0.00,Wunderground v.1.15,2013-02-20 05:52:00,
2013-02-20 00:57:00,38.7,37.7,29.94,SW,235,1.0,2.0,96,0.00,,,0.00,Wunderground v.1.15,2013-02-20 05:57:00,
2013-02-20 00:58:00,38.7,37.7,29.94,SW,235,0.0,2.0,96,0.00,,,0.00,Wunderground v.1.15,2013-02-20 05:58:00,
2013-02-20 00:59:00,38.7,37.7,29.94,SW,235,0.0,2.0,96,0.00,,,0.00,Wunderground v.1.15,2013-02-20 05:59:00,
2013-02-20 01:05:00,38.5,37.2,29.94,SW,233,1.0,1.0,95,0.00,,,0.00,Wunderground v.1.15,2013-02-20 06:05:00,
2013-02-20 01:06:00,38.5,37.2,29.94,SW,233,0.0,1.0,95,0.00,,,0.00,Wunderground v.1.15,2013-02-20 06:06:00,
2013-02-20 01:08:00,38.4,36.8,29.94,SW,233,1.0,1.0,94,0.00,,,0.00,Wunderground v.1.15,2013-02-20 06:08:00,
2013-02-20 01:11:00,38.4,36.6,29.95,SW,233,0.0,0.0,93,0.00,,,0.00,Wunderground v.1.15,2013-02-20 06:11:00,
2013-02-20 01:13:00,38.3,36.5,29.95,SW,235,1.0,1.0,93,0.00,,,0.00,Wunderground v.1.15,2013-02-20 06:13:00,
2013-02-20 01:15:00,38.2,36.1,29.95,SW,233,0.0,1.0,92,0.00,,,0.00,Wunderground v.1.15,2013-02-20 06:15:00,
2013-02-20 01:18:00,38.1,36.0,29.95,NE,40,0.0,1.0,92,0.00,,,0.00,Wunderground v.1.15,2013-02-20 06:18:00,
2013-02-20 01:19:00,38.1,36.0,29.95,WNW,300,0.0,1.0,92,0.00,,,0.00,Wunderground v.1.15,2013-02-20 06:19:00,
2013-02-20 01:21:00,38.0,35.9,29.95,SW,226,0.0,2.0,92,0.00,,,0.00,Wunderground v.1.15,2013-02-20 06:21:00,
2013-02-20 01:24:00,38.0,35.6,29.95,WSW,257,1.0,2.0,91,0.00,,,0.00,Wunderground v.1.15,2013-02-20 06:24:00,
2013-02-20 01:25:00,38.0,35.6,29.95,WSW,245,0.0,2.0,91,0.00,,,0.00,Wunderground v.1.15,2013-02-20 06:25:00,
2013-02-20 01:27:00,38.0,35.0,29.95,SSW,211,0.0,2.0,89,0.00,,,0.00,Wunderground v.1.15,2013-02-20 06:27:00,
2013-02-20 01:31:00,38.0,34.2,29.96,South,172,1.0,3.0,86,0.00,,,0.00,Wunderground v.1.15,2013-02-20 06:31:00,
2013-02-20 01:32:00,38.1,34.3,29.96,West,266,3.0,3.0,86,0.00,,,0.00,Wunderground v.1.15,2013-02-20 06:32:00,
2013-02-20 01:33:00,38.1,34.0,29.96,NNE,20,1.0,3.0,85,0.00,,,0.00,Wunderground v.1.15,2013-02-20 06:33:00,
2013-02-20 01:36:00,38.1,34.0,29.96,SW,231,1.0,3.0,85,0.00,,,0.00,Wunderground v.1.15,2013-02-20 06:36:00,
2013-02-20 01:38:00,38.1,33.7,29.96,WSW,249,1.0,3.0,84,0.00,,,0.00,Wunderground v.1.15,2013-02-20 06:38:00,
2013-02-20 01:39:00,38.1,33.4,29.96,WSW,254,0.0,3.0,83,0.00,,,0.00,Wunderground v.1.15,2013-02-20 06:39:00,
2013-02-20 01:42:00,38.0,33.0,29.96,NNE,26,0.0,1.0,82,0.00,,,0.00,Wunderground v.1.15,2013-02-20 06:42:00,
2013-02-20 01:44:00,38.0,32.4,29.96,SW,235,3.0,3.0,80,0.00,,,0.00,Wunderground v.1.15,2013-02-20 06:44:00,
2013-02-20 01:46:00,38.1,32.2,29.96,West,280,1.0,3.0,79,0.00,,,0.00,Wunderground v.1.15,2013-02-20 06:46:00,
2013-02-20 01:50:00,38.2,31.6,29.96,West,259,0.0,1.0,77,0.00,,,0.00,Wunderground v.1.15,2013-02-20 06:50:00,
2013-02-20 01:51:00,38.2,31.6,29.96,SW,235,0.0,1.0,77,0.00,,,0.00,Wunderground v.1.15,2013-02-20 06:51:00,
2013-02-20 01:52:00,38.2,31.6,29.96,NNW,327,0.0,1.0,77,0.00,,,0.00,Wunderground v.1.15,2013-02-20 06:52:00,
2013-02-20 01:56:00,38.1,30.9,29.96,SSE,167,0.0,2.0,75,0.00,,,0.00,Wunderground v.1.15,2013-02-20 06:56:00,
2013-02-20 01:58:00,38.0,30.4,29.97,WSW,257,0.0,2.0,74,0.00,,,0.00,Wunderground v.1.15,2013-02-20 06:58:00,
2013-02-20 01:59:00,38.0,30.8,29.96,NE,46,1.0,2.0,75,0.00,,,0.00,Wunderground v.1.15,2013-02-20 06:59:00,
2013-02-20 02:01:00,37.9,30.4,29.96,West,267,3.0,3.0,74,0.00,,,0.00,Wunderground v.1.15,2013-02-20 07:01:00,
2013-02-20 02:03:00,38.0,30.1,29.97,WSW,250,0.0,6.0,73,0.00,,,0.00,Wunderground v.1.15,2013-02-20 07:03:00,
2013-02-20 02:04:00,37.9,30.4,29.96,SW,231,0.0,6.0,74,0.00,,,0.00,Wunderground v.1.15,2013-02-20 07:04:00,
2013-02-20 02:06:00,37.9,30.0,29.97,NNE,13,1.0,6.0,73,0.00,,,0.00,Wunderground v.1.15,2013-02-20 07:06:00,
2013-02-20 02:08:00,37.8,29.9,29.97,East,93,0.0,6.0,73,0.00,,,0.00,Wunderground v.1.15,2013-02-20 07:08:00,
2013-02-20 02:10:00,37.7,29.8,29.97,WNW,297,1.0,1.0,73,0.00,,,0.00,Wunderground v.1.15,2013-02-20 07:10:00,
2013-02-20 02:11:00,37.6,29.7,29.97,WSW,257,0.0,1.0,73,0.00,,,0.00,Wunderground v.1.15,2013-02-20 07:11:00,
2013-02-20 02:13:00,37.5,29.3,29.97,WSW,249,2.0,4.0,72,0.00,,,0.00,Wunderground v.1.15,2013-02-20 07:13:00,
2013-02-20 02:15:00,37.5,29.3,29.97,WSW,255,1.0,4.0,72,0.00,,,0.00,Wunderground v.1.15,2013-02-20 07:15:00,
2013-02-20 02:16:00,37.5,28.9,29.97,SSW,207,0.0,4.0,71,0.00,,,0.00,Wunderground v.1.15,2013-02-20 07:16:00,
2013-02-20 02:17:00,37.5,28.9,29.97,SSW,207,0.0,4.0,71,0.00,,,0.00,Wunderground v.1.15,2013-02-20 07:17:00,
2013-02-20 02:18:00,37.5,29.3,29.97,WSW,240,0.0,4.0,72,0.00,,,0.00,Wunderground v.1.15,2013-02-20 07:18:00,
2013-02-20 02:20:00,37.4,28.9,29.96,WSW,249,0.0,0.0,71,0.00,,,0.00,Wunderground v.1.15,2013-02-20 07:20:00,
2013-02-20 02:22:00,37.3,28.8,29.96,SSW,198,0.0,0.0,71,0.00,,,0.00,Wunderground v.1.15,2013-02-20 07:22:00,
2013-02-20 02:24:00,37.2,28.7,29.96,West,278,0.0,2.0,71,0.00,,,0.00,Wunderground v.1.15,2013-02-20 07:24:00,
2013-02-20 02:25:00,37.2,29.0,29.96,West,280,0.0,2.0,72,0.00,,,0.00,Wunderground v.1.15,2013-02-20 07:25:00,
2013-02-20 02:27:00,37.1,28.6,29.96,West,271,0.0,2.0,71,0.00,,,0.00,Wunderground v.1.15,2013-02-20 07:27:00,
2013-02-20 02:29:00,37.0,28.5,29.96,SW,236,1.0,2.0,71,0.00,,,0.00,Wunderground v.1.15,2013-02-20 07:29:00,
2013-02-20 02:30:00,37.0,28.5,29.96,SW,236,1.0,2.0,71,0.00,,,0.00,Wunderground v.1.15,2013-02-20 07:30:00,
2013-02-20 02:32:00,36.9,28.4,29.97,SW,236,0.0,2.0,71,0.00,,,0.00,Wunderground v.1.15,2013-02-20 07:32:00,
2013-02-20 02:34:00,36.8,28.3,29.97,North,11,0.0,2.0,71,0.00,,,0.00,Wunderground v.1.15,2013-02-20 07:34:00,
2013-02-20 02:35:00,36.8,28.3,29.97,North,11,0.0,2.0,71,0.00,,,0.00,Wunderground v.1.15,2013-02-20 07:35:00,
2013-02-20 02:37:00,36.7,28.2,29.97,West,280,0.0,2.0,71,0.00,,,0.00,Wunderground v.1.15,2013-02-20 07:37:00,
2013-02-20 02:39:00,36.6,27.7,29.97,West,269,0.0,3.0,70,0.00,,,0.00,Wunderground v.1.15,2013-02-20 07:39:00,
2013-02-20 02:40:00,36.6,27.7,29.97,West,270,0.0,0.0,70,0.00,,,0.00,Wunderground v.1.15,2013-02-20 07:40:00,
2013-02-20 02:43:00,36.5,28.0,29.97,NNE,26,0.0,2.0,71,0.00,,,0.00,Wunderground v.1.15,2013-02-20 07:43:00,
2013-02-20 02:45:00,36.4,27.9,29.97,NNE,16,0.0,2.0,71,0.00,,,0.00,Wunderground v.1.15,2013-02-20 07:45:00,
2013-02-20 02:48:00,36.3,27.8,29.97,WSW,251,1.0,2.0,71,0.00,,,0.00,Wunderground v.1.15,2013-02-20 07:48:00,
2013-02-20 02:50:00,36.2,28.0,29.97,WSW,252,1.0,1.0,72,0.00,,,0.00,Wunderground v.1.15,2013-02-20 07:50:00,
2013-02-20 02:53:00,36.0,28.2,29.96,West,272,0.0,1.0,73,0.00,,,0.00,Wunderground v.1.15,2013-02-20 07:53:00,
2013-02-20 02:55:00,35.8,27.7,29.96,WNW,300,0.0,1.0,72,0.00,,,0.00,Wunderground v.1.15,2013-02-20 07:55:00,
2013-02-20 02:58:00,35.8,27.0,29.97,SW,225,0.0,2.0,70,0.00,,,0.00,Wunderground v.1.15,2013-02-20 07:58:00,
2013-02-20 03:00:00,35.7,26.9,29.97,SW,226,0.0,0.0,70,0.00,,,0.00,Wunderground v.1.15,2013-02-20 08:00:00,
2013-02-20 03:05:00,35.7,26.9,29.96,West,262,3.0,3.0,70,0.00,,,0.00,Wunderground v.1.15,2013-02-20 08:05:00,
2013-02-20 03:06:00,35.8,27.0,29.96,WNW,284,0.0,3.0,70,0.00,,,0.00,Wunderground v.1.15,2013-02-20 08:06:00,
2013-02-20 03:10:00,35.8,26.6,29.96,SW,236,1.0,2.0,69,0.00,,,0.00,Wunderground v.1.15,2013-02-20 08:10:00,
2013-02-20 03:11:00,35.8,26.6,29.96,West,277,1.0,2.0,69,0.00,,,0.00,Wunderground v.1.15,2013-02-20 08:11:00,
2013-02-20 03:15:00,36.0,26.5,29.96,SW,218,1.0,5.0,68,0.00,,,0.00,Wunderground v.1.15,2013-02-20 08:15:00,
2013-02-20 03:16:00,36.0,26.1,29.96,SW,220,0.0,5.0,67,0.00,,,0.00,Wunderground v.1.15,2013-02-20 08:16:00,
2013-02-20 03:20:00,36.1,26.2,29.96,NNW,345,2.0,3.0,67,0.00,,,0.00,Wunderground v.1.15,2013-02-20 08:20:00,
2013-02-20 03:21:00,36.0,26.1,29.96,SSW,210,2.0,3.0,67,0.00,,,0.00,Wunderground v.1.15,2013-02-20 08:21:00,
2013-02-20 03:25:00,36.0,26.1,29.96,North,352,1.0,3.0,67,0.00,,,0.00,Wunderground v.1.15,2013-02-20 08:25:00,
2013-02-20 03:26:00,36.0,26.1,29.96,NW,309,1.0,3.0,67,0.00,,,0.00,Wunderground v.1.15,2013-02-20 08:26:00,
2013-02-20 03:30:00,36.0,25.7,29.96,West,271,1.0,2.0,66,0.00,,,0.00,Wunderground v.1.15,2013-02-20 08:30:00,
2013-02-20 03:31:00,36.0,25.7,29.96,West,271,1.0,2.0,66,0.00,,,0.00,Wunderground v.1.15,2013-02-20 08:31:00,
2013-02-20 03:36:00,36.0,25.7,29.96,West,273,1.0,3.0,66,0.00,,,0.00,Wunderground v.1.15,2013-02-20 08:36:00,
2013-02-20 03:41:00,35.8,25.9,29.96,West,259,0.0,1.0,67,0.00,,,0.00,Wunderground v.1.15,2013-02-20 08:41:00,
2013-02-20 03:46:00,35.5,25.6,29.96,West,264,1.0,2.0,67,0.00,,,0.00,Wunderground v.1.15,2013-02-20 08:46:00,
2013-02-20 03:47:00,35.5,25.6,29.96,West,264,0.0,2.0,67,0.00,,,0.00,Wunderground v.1.15,2013-02-20 08:47:00,
2013-02-20 03:51:00,35.4,25.2,29.96,West,280,0.0,1.0,66,0.00,,,0.00,Wunderground v.1.15,2013-02-20 08:51:00,
2013-02-20 03:52:00,35.4,25.2,29.96,WSW,255,2.0,2.0,66,0.00,,,0.00,Wunderground v.1.15,2013-02-20 08:52:00,
2013-02-20 03:56:00,35.3,25.1,29.97,WSW,242,0.0,3.0,66,0.00,,,0.00,Wunderground v.1.15,2013-02-20 08:56:00,
2013-02-20 03:57:00,35.3,25.1,29.97,WSW,242,0.0,3.0,66,0.00,,,0.00,Wunderground v.1.15,2013-02-20 08:57:00,
2013-02-20 04:01:00,35.1,24.9,29.97,West,271,0.0,1.0,66,0.00,,,0.00,Wunderground v.1.15,2013-02-20 09:01:00,
2013-02-20 04:02:00,35.0,24.8,29.97,WSW,251,1.0,4.0,66,0.00,,,0.00,Wunderground v.1.15,2013-02-20 09:02:00,
2013-02-20 04:06:00,34.9,25.0,29.97,NNW,338,4.0,4.0,67,0.00,,,0.00,Wunderground v.1.15,2013-02-20 09:06:00,
2013-02-20 04:07:00,34.9,24.7,29.97,WSW,242,1.0,4.0,66,0.00,,,0.00,Wunderground v.1.15,2013-02-20 09:07:00,
2013-02-20 04:11:00,35.0,24.4,29.98,West,271,2.0,3.0,65,0.00,,,0.00,Wunderground v.1.15,2013-02-20 09:11:00,
2013-02-20 04:12:00,35.0,24.8,29.98,West,278,1.0,4.0,66,0.00,,,0.00,Wunderground v.1.15,2013-02-20 09:12:00,
2013-02-20 04:16:00,35.2,24.6,29.98,NW,324,0.0,6.0,65,0.00,,,0.00,Wunderground v.1.15,2013-02-20 09:16:00,
2013-02-20 04:17:00,35.2,24.6,29.98,WSW,248,1.0,6.0,65,0.00,,,0.00,Wunderground v.1.15,2013-02-20 09:17:00,
2013-02-20 04:18:00,35.2,24.2,29.98,West,264,3.0,6.0,64,0.00,,,0.00,Wunderground v.1.15,2013-02-20 09:18:00,
2013-02-20 04:21:00,35.3,24.3,29.98,West,259,1.0,3.0,64,0.00,,,0.00,Wunderground v.1.15,2013-02-20 09:21:00,
2013-02-20 04:22:00,35.3,24.3,29.98,West,263,2.0,3.0,64,0.00,,,0.00,Wunderground v.1.15,2013-02-20 09:22:00,
2013-02-20 04:23:00,35.4,24.0,29.99,West,262,3.0,4.0,63,0.00,,,0.00,Wunderground v.1.15,2013-02-20 09:23:00,
2013-02-20 04:26:00,35.5,24.1,29.99,NNE,24,0.0,7.0,63,0.00,,,0.00,Wunderground v.1.15,2013-02-20 09:26:00,
2013-02-20 04:27:00,35.5,24.1,29.99,WNW,284,2.0,7.0,63,0.00,,,0.00,Wunderground v.1.15,2013-02-20 09:27:00,
2013-02-20 04:28:00,35.5,24.1,29.99,WSW,242,0.0,7.0,63,0.00,,,0.00,Wunderground v.1.15,2013-02-20 09:28:00,
2013-02-20 04:32:00,35.5,24.1,29.99,WNW,293,3.0,3.0,63,0.00,,,0.00,Wunderground v.1.15,2013-02-20 09:32:00,
2013-02-20 04:33:00,35.5,24.1,29.99,SW,228,2.0,3.0,63,0.00,,,0.00,Wunderground v.1.15,2013-02-20 09:33:00,
2013-02-20 04:37:00,35.5,23.8,29.99,WNW,301,1.0,5.0,62,0.00,,,0.00,Wunderground v.1.15,2013-02-20 09:37:00,
2013-02-20 04:38:00,35.5,23.8,29.99,North,355,0.0,5.0,62,0.00,,,0.00,Wunderground v.1.15,2013-02-20 09:38:00,
2013-02-20 04:42:00,35.5,23.8,29.99,North,356,1.0,6.0,62,0.00,,,0.00,Wunderground v.1.15,2013-02-20 09:42:00,
2013-02-20 04:43:00,35.5,23.8,29.99,North,359,0.0,6.0,62,0.00,,,0.00,Wunderground v.1.15,2013-02-20 09:43:00,
2013-02-20 04:47:00,35.4,23.3,29.99,NW,314,1.0,6.0,61,0.00,,,0.00,Wunderground v.1.15,2013-02-20 09:47:00,
2013-02-20 04:48:00,35.3,23.2,29.99,NW,326,1.0,6.0,61,0.00,,,0.00,Wunderground v.1.15,2013-02-20 09:48:00,
2013-02-20 04:49:00,35.4,23.3,29.99,West,273,1.0,6.0,61,0.00,,,0.00,Wunderground v.1.15,2013-02-20 09:49:00,
2013-02-20 04:52:00,35.2,23.5,29.99,SW,231,0.0,1.0,62,0.00,,,0.00,Wunderground v.1.15,2013-02-20 09:52:00,
2013-02-20 04:53:00,35.2,23.5,29.99,SW,231,0.0,1.0,62,0.00,,,0.00,Wunderground v.1.15,2013-02-20 09:53:00,
2013-02-20 04:54:00,35.1,23.4,29.99,SSW,210,0.0,1.0,62,0.00,,,0.00,Wunderground v.1.15,2013-02-20 09:54:00,
2013-02-20 04:58:00,34.9,23.2,29.99,West,276,0.0,1.0,62,0.00,,,0.00,Wunderground v.1.15,2013-02-20 09:58:00,
2013-02-20 04:59:00,34.9,23.2,29.99,West,260,1.0,2.0,62,0.00,,,0.00,Wunderground v.1.15,2013-02-20 09:59:00,
2013-02-20 05:03:00,34.8,23.1,30.00,NE,51,0.0,2.0,62,0.00,,,0.00,Wunderground v.1.15,2013-02-20 10:03:00,
2013-02-20 05:04:00,34.8,23.1,30.00,NE,51,0.0,2.0,62,0.00,,,0.00,Wunderground v.1.15,2013-02-20 10:04:00,
2013-02-20 05:08:00,34.8,23.1,30.00,WNW,283,1.0,4.0,62,0.00,,,0.00,Wunderground v.1.15,2013-02-20 10:08:00,
2013-02-20 05:09:00,34.8,22.7,30.00,NNW,338,1.0,4.0,61,0.00,,,0.00,Wunderground v.1.15,2013-02-20 10:09:00,
2013-02-20 05:10:00,34.8,22.7,30.00,WNW,288,0.0,4.0,61,0.00,,,0.00,Wunderground v.1.15,2013-02-20 10:10:00,
2013-02-20 05:13:00,34.9,22.8,30.00,West,277,2.0,2.0,61,0.00,,,0.00,Wunderground v.1.15,2013-02-20 10:13:00,
2013-02-20 05:14:00,34.8,22.7,30.00,West,269,1.0,2.0,61,0.00,,,0.00,Wunderground v.1.15,2013-02-20 10:14:00,
2013-02-20 05:15:00,34.9,22.8,30.00,NW,308,0.0,2.0,61,0.00,,,0.00,Wunderground v.1.15,2013-02-20 10:15:00,
2013-02-20 05:18:00,34.9,22.8,30.00,WNW,300,0.0,3.0,61,0.00,,,0.00,Wunderground v.1.15,2013-02-20 10:18:00,
2013-02-20 05:19:00,34.9,22.8,30.00,SW,219,2.0,3.0,61,0.00,,,0.00,Wunderground v.1.15,2013-02-20 10:19:00,
2013-02-20 05:20:00,34.9,22.8,30.00,West,279,0.0,1.0,61,0.00,,,0.00,Wunderground v.1.15,2013-02-20 10:20:00,
2013-02-20 05:23:00,34.8,23.1,30.01,SW,232,0.0,2.0,62,0.00,,,0.00,Wunderground v.1.15,2013-02-20 10:23:00,
2013-02-20 05:24:00,34.8,23.1,30.01,SW,232,0.0,2.0,62,0.00,,,0.00,Wunderground v.1.15,2013-02-20 10:24:00,
2013-02-20 05:25:00,34.7,22.6,30.01,WNW,285,0.0,2.0,61,0.00,,,0.00,Wunderground v.1.15,2013-02-20 10:25:00,
2013-02-20 05:28:00,34.6,22.5,30.01,WNW,285,0.0,2.0,61,0.00,,,0.00,Wunderground v.1.15,2013-02-20 10:28:00,
2013-02-20 05:29:00,34.6,22.5,30.00,WNW,285,0.0,2.0,61,0.00,,,0.00,Wunderground v.1.15,2013-02-20 10:29:00,
2013-02-20 05:30:00,34.5,22.4,30.01,WSW,255,1.0,2.0,61,0.00,,,0.00,Wunderground v.1.15,2013-02-20 10:30:00,
2013-02-20 05:33:00,34.5,22.4,30.01,WSW,255,0.0,2.0,61,0.00,,,0.00,Wunderground v.1.15,2013-02-20 10:33:00,
2013-02-20 05:34:00,34.4,22.3,30.01,WSW,255,0.0,2.0,61,0.00,,,0.00,Wunderground v.1.15,2013-02-20 10:34:00,
2013-02-20 05:35:00,34.3,22.6,30.01,WSW,255,0.0,2.0,62,0.00,,,0.00,Wunderground v.1.15,2013-02-20 10:35:00,
2013-02-20 05:39:00,34.1,22.0,30.01,WSW,245,0.0,2.0,61,0.00,,,0.00,Wunderground v.1.15,2013-02-20 10:39:00,
2013-02-20 05:40:00,34.0,22.3,30.01,SSW,201,0.0,0.0,62,0.00,,,0.00,Wunderground v.1.15,2013-02-20 10:40:00,
2013-02-20 05:44:00,33.9,22.2,30.01,West,280,0.0,2.0,62,0.00,,,0.00,Wunderground v.1.15,2013-02-20 10:44:00,
2013-02-20 05:45:00,33.9,22.2,30.02,SW,222,0.0,2.0,62,0.00,,,0.00,Wunderground v.1.15,2013-02-20 10:45:00,
2013-02-20 05:49:00,33.8,22.1,30.02,SW,222,0.0,2.0,62,0.00,,,0.00,Wunderground v.1.15,2013-02-20 10:49:00,
2013-02-20 05:50:00,33.7,22.1,30.01,SW,225,1.0,1.0,62,0.00,,,0.00,Wunderground v.1.15,2013-02-20 10:50:00,
2013-02-20 05:54:00,33.6,22.3,30.02,SW,235,0.0,1.0,63,0.00,,,0.00,Wunderground v.1.15,2013-02-20 10:54:00,
2013-02-20 05:55:00,33.5,22.2,30.02,SW,235,0.0,1.0,63,0.00,,,0.00,Wunderground v.1.15,2013-02-20 10:55:00,
2013-02-20 05:59:00,33.2,22.0,30.02,SW,235,0.0,1.0,63,0.00,,,0.00,Wunderground v.1.15,2013-02-20 10:59:00,
2013-02-20 06:01:00,33.2,22.0,30.02,SW,236,1.0,1.0,63,0.00,,,0.00,Wunderground v.1.15,2013-02-20 11:01:00,
2013-02-20 06:04:00,33.0,22.1,30.02,WSW,239,0.0,1.0,64,0.00,,,0.00,Wunderground v.1.15,2013-02-20 11:04:00,
2013-02-20 06:05:00,33.0,22.1,30.02,WSW,239,0.0,1.0,64,0.00,,,0.00,Wunderground v.1.15,2013-02-20 11:05:00,
2013-02-20 06:06:00,33.0,22.1,30.02,WSW,239,0.0,1.0,64,0.00,,,0.00,Wunderground v.1.15,2013-02-20 11:06:00,
2013-02-20 06:09:00,32.9,22.0,30.02,WSW,248,0.0,1.0,64,0.00,,,0.00,Wunderground v.1.15,2013-02-20 11:09:00,
2013-02-20 06:10:00,32.9,22.0,30.02,WSW,248,0.0,0.0,64,0.00,,,0.00,Wunderground v.1.15,2013-02-20 11:10:00,
2013-02-20 06:11:00,32.9,22.0,30.02,WSW,248,0.0,0.0,64,0.00,,,0.00,Wunderground v.1.15,2013-02-20 11:11:00,
2013-02-20 06:15:00,32.8,22.3,30.02,WSW,248,0.0,1.0,65,0.00,,,0.00,Wunderground v.1.15,2013-02-20 11:15:00,
2013-02-20 06:16:00,32.8,22.7,30.02,WSW,247,0.0,1.0,66,0.00,,,0.00,Wunderground v.1.15,2013-02-20 11:16:00,
2013-02-20 06:20:00,32.4,23.4,30.01,WSW,248,0.0,0.0,69,0.00,,,0.00,Wunderground v.1.15,2013-02-20 11:20:00,
2013-02-20 06:21:00,32.3,23.6,30.02,WSW,248,0.0,0.0,70,0.00,,,0.00,Wunderground v.1.15,2013-02-20 11:21:00,
2013-02-20 06:25:00,31.8,23.8,30.02,WSW,248,0.0,1.0,72,0.00,,,0.00,Wunderground v.1.15,2013-02-20 11:25:00,
2013-02-20 06:26:00,31.7,23.7,30.02,WSW,248,1.0,1.0,72,0.00,,,0.00,Wunderground v.1.15,2013-02-20 11:26:00,
2013-02-20 06:30:00,31.3,24.3,30.02,WSW,248,0.0,0.0,75,0.00,,,0.00,Wunderground v.1.15,2013-02-20 11:30:00,
2013-02-20 06:31:00,31.2,24.2,30.02,WSW,248,0.0,0.0,75,0.00,,,0.00,Wunderground v.1.15,2013-02-20 11:31:00,
2013-02-20 06:35:00,30.7,23.7,30.02,WSW,248,0.0,0.0,75,0.00,,,0.00,Wunderground v.1.15,2013-02-20 11:35:00,
2013-02-20 06:36:00,30.7,23.7,30.02,WSW,248,0.0,0.0,75,0.00,,,0.00,Wunderground v.1.15,2013-02-20 11:36:00,
2013-02-20 06:37:00,30.6,23.6,30.02,WSW,248,0.0,0.0,75,0.00,,,0.00,Wunderground v.1.15,2013-02-20 11:37:00,
2013-02-20 06:40:00,30.5,23.5,30.02,WSW,248,0.0,0.0,75,0.00,,,0.00,Wunderground v.1.15,2013-02-20 11:40:00,
2013-02-20 06:41:00,30.5,23.5,30.02,WSW,247,0.0,0.0,75,0.00,,,0.00,Wunderground v.1.15,2013-02-20 11:41:00,
2013-02-20 06:42:00,30.5,23.5,30.02,WSW,248,0.0,0.0,75,0.00,,,0.00,Wunderground v.1.15,2013-02-20 11:42:00,
2013-02-20 06:45:00,30.4,23.1,30.02,WSW,248,0.0,0.0,74,0.00,,,0.00,Wunderground v.1.15,2013-02-20 11:45:00,
2013-02-20 06:46:00,30.3,23.0,30.02,WSW,248,0.0,0.0,74,0.00,,,0.00,Wunderground v.1.15,2013-02-20 11:46:00,
2013-02-20 06:47:00,30.3,23.0,30.02,WSW,248,0.0,1.0,74,0.00,,,0.00,Wunderground v.1.15,2013-02-20 11:47:00,
2013-02-20 06:51:00,30.4,23.1,30.02,WSW,248,0.0,0.0,74,0.00,,,0.00,Wunderground v.1.15,2013-02-20 11:51:00,
2013-02-20 06:52:00,30.3,23.0,30.02,WSW,248,0.0,0.0,74,0.00,,,0.00,Wunderground v.1.15,2013-02-20 11:52:00,
2013-02-20 06:56:00,30.4,22.4,30.03,WSW,248,0.0,1.0,72,0.00,,,0.00,Wunderground v.1.15,2013-02-20 11:56:00,
2013-02-20 06:57:00,30.5,22.5,30.03,WSW,248,0.0,1.0,72,0.00,,,0.00,Wunderground v.1.15,2013-02-20 11:57:00,
2013-02-20 07:01:00,30.6,22.6,30.03,WSW,242,0.0,0.0,72,0.00,,,0.00,Wunderground v.1.15,2013-02-20 12:01:00,
2013-02-20 07:02:00,30.6,22.6,30.03,WSW,242,0.0,0.0,72,0.00,,,0.00,Wunderground v.1.15,2013-02-20 12:02:00,
2013-02-20 07:03:00,30.6,23.0,30.03,WSW,242,0.0,1.0,73,0.00,,,0.00,Wunderground v.1.15,2013-02-20 12:03:00,
2013-02-20 07:06:00,30.5,23.5,30.03,WSW,242,0.0,1.0,75,0.00,,,0.00,Wunderground v.1.15,2013-02-20 12:06:00,
2013-02-20 07:07:00,30.4,23.1,30.03,WSW,242,1.0,1.0,74,0.00,,,0.00,Wunderground v.1.15,2013-02-20 12:07:00,
2013-02-20 07:08:00,30.4,23.1,30.03,WSW,242,0.0,1.0,74,0.00,,,0.00,Wunderground v.1.15,2013-02-20 12:08:00,
2013-02-20 07:11:00,30.4,23.1,30.03,WSW,242,0.0,0.0,74,0.00,,,0.00,Wunderground v.1.15,2013-02-20 12:11:00,
2013-02-20 07:12:00,30.4,23.1,30.03,WSW,242,0.0,0.0,74,0.00,,,0.00,Wunderground v.1.15,2013-02-20 12:12:00,
2013-02-20 07:13:00,30.4,23.4,30.03,WSW,242,0.0,1.0,75,0.00,,,0.00,Wunderground v.1.15,2013-02-20 12:13:00,
2013-02-20 07:16:00,30.3,23.6,30.03,WSW,242,0.0,1.0,76,0.00,,,0.00,Wunderground v.1.15,2013-02-20 12:16:00,
2013-02-20 07:17:00,30.2,23.5,30.04,WSW,242,0.0,1.0,76,0.00,,,0.00,Wunderground v.1.15,2013-02-20 12:17:00,
2013-02-20 07:18:00,30.2,23.5,30.04,WSW,242,0.0,1.0,76,0.00,,,0.00,Wunderground v.1.15,2013-02-20 12:18:00,
2013-02-20 07:21:00,30.0,24.0,30.04,WSW,242,0.0,0.0,78,0.00,,,0.00,Wunderground v.1.15,2013-02-20 12:21:00,
2013-02-20 07:22:00,29.9,24.2,30.03,WSW,242,0.0,0.0,79,0.00,,,0.00,Wunderground v.1.15,2013-02-20 12:22:00,
2013-02-20 07:23:00,29.9,24.2,30.04,WSW,242,0.0,0.0,79,0.00,,,0.00,Wunderground v.1.15,2013-02-20 12:23:00,
2013-02-20 07:26:00,29.7,24.6,30.04,WSW,241,0.0,0.0,81,0.00,,,0.00,Wunderground v.1.15,2013-02-20 12:26:00,
2013-02-20 07:27:00,29.7,24.6,30.04,WSW,242,0.0,0.0,81,0.00,,,0.00,Wunderground v.1.15,2013-02-20 12:27:00,
2013-02-20 07:28:00,29.6,24.5,30.04,WSW,242,0.0,0.0,81,0.00,,,0.00,Wunderground v.1.15,2013-02-20 12:28:00,
2013-02-20 07:31:00,29.5,24.7,30.04,WSW,242,0.0,0.0,82,0.00,,,0.00,Wunderground v.1.15,2013-02-20 12:31:00,
2013-02-20 07:32:00,29.5,24.7,30.04,WSW,242,0.0,0.0,82,0.00,,,0.00,Wunderground v.1.15,2013-02-20 12:32:00,
2013-02-20 07:33:00,29.4,24.6,30.04,WSW,242,0.0,0.0,82,0.00,,,0.00,Wunderground v.1.15,2013-02-20 12:33:00,
2013-02-20 07:36:00,29.4,24.9,30.05,WSW,242,0.0,0.0,83,0.00,,,0.00,Wunderground v.1.15,2013-02-20 12:36:00,
2013-02-20 07:37:00,29.3,24.8,30.05,WSW,242,0.0,0.0,83,0.00,,,0.00,Wunderground v.1.15,2013-02-20 12:37:00,
2013-02-20 07:38:00,29.4,24.9,30.05,WSW,242,0.0,0.0,83,0.00,,,0.00,Wunderground v.1.15,2013-02-20 12:38:00,
2013-02-20 07:42:00,29.3,24.8,30.05,WSW,242,0.0,0.0,83,0.00,,,0.00,Wunderground v.1.15,2013-02-20 12:42:00,
2013-02-20 07:43:00,29.3,25.1,30.05,WSW,242,0.0,0.0,84,0.00,,,0.00,Wunderground v.1.15,2013-02-20 12:43:00,
2013-02-20 07:44:00,29.3,25.1,30.04,SW,229,0.0,1.0,84,0.00,,,0.00,Wunderground v.1.15,2013-02-20 12:44:00,
2013-02-20 07:47:00,29.4,24.9,30.05,SW,229,0.0,1.0,83,0.00,,,0.00,Wunderground v.1.15,2013-02-20 12:47:00,
2013-02-20 07:48:00,29.4,24.9,30.05,SW,229,0.0,1.0,83,0.00,,,0.00,Wunderground v.1.15,2013-02-20 12:48:00,
2013-02-20 07:49:00,29.4,24.9,30.05,SW,229,0.0,1.0,83,0.00,,,0.00,Wunderground v.1.15,2013-02-20 12:49:00,
2013-02-20 07:52:00,29.6,25.1,30.05,SW,229,0.0,1.0,83,0.00,,,0.00,Wunderground v.1.15,2013-02-20 12:52:00,
2013-02-20 07:53:00,29.6,25.1,30.05,SW,229,0.0,1.0,83,0.00,,,0.00,Wunderground v.1.15,2013-02-20 12:53:00,
2013-02-20 07:54:00,29.6,24.8,30.05,SW,229,0.0,1.0,82,0.00,,,0.00,Wunderground v.1.15,2013-02-20 12:54:00,
2013-02-20 07:57:00,30.0,24.6,30.04,SSW,197,0.0,1.0,80,0.00,,,0.00,Wunderground v.1.15,2013-02-20 12:57:00,
2013-02-20 07:58:00,30.0,24.6,30.04,SSW,197,0.0,1.0,80,0.00,,,0.00,Wunderground v.1.15,2013-02-20 12:58:00,
2013-02-20 07:59:00,30.2,24.5,30.04,SSW,197,0.0,1.0,79,0.00,,,0.00,Wunderground v.1.15,2013-02-20 12:59:00,
2013-02-20 08:02:00,30.5,24.5,30.05,SSW,197,0.0,0.0,78,0.00,,,0.00,Wunderground v.1.15,2013-02-20 13:02:00,
2013-02-20 08:03:00,30.5,24.5,30.05,SSW,197,0.0,0.0,78,0.00,,,0.00,Wunderground v.1.15,2013-02-20 13:03:00,
2013-02-20 08:04:00,30.6,24.9,30.05,SSW,197,0.0,0.0,79,0.00,,,0.00,Wunderground v.1.15,2013-02-20 13:04:00,
2013-02-20 08:07:00,30.8,24.4,30.05,SSW,197,0.0,0.0,77,0.00,,,0.00,Wunderground v.1.15,2013-02-20 13:07:00,
2013-02-20 08:08:00,30.8,24.4,30.05,SSW,197,0.0,0.0,77,0.00,,,0.00,Wunderground v.1.15,2013-02-20 13:08:00,
2013-02-20 08:09:00,30.9,24.5,30.05,SSW,197,0.0,0.0,77,0.00,,,0.00,Wunderground v.1.15,2013-02-20 13:09:00,
2013-02-20 08:10:00,31.0,24.9,30.05,SSW,197,0.0,0.0,78,0.00,,,0.00,Wunderground v.1.15,2013-02-20 13:10:00,
2013-02-20 08:12:00,31.3,25.2,30.05,SSW,197,0.0,0.0,78,0.00,,,0.00,Wunderground v.1.15,2013-02-20 13:12:00,
2013-02-20 08:13:00,31.3,25.2,30.05,SSW,197,0.0,0.0,78,0.00,,,0.00,Wunderground v.1.15,2013-02-20 13:13:00,
2013-02-20 08:14:00,31.5,25.1,30.05,SSW,197,0.0,0.0,77,0.00,,,0.00,Wunderground v.1.15,2013-02-20 13:14:00,
2013-02-20 08:15:00,31.5,25.1,30.05,SSW,197,0.0,0.0,77,0.00,,,0.00,Wunderground v.1.15,2013-02-20 13:15:00,
2013-02-20 08:17:00,31.9,25.5,30.06,SSW,197,0.0,0.0,77,0.00,,,0.00,Wunderground v.1.15,2013-02-20 13:17:00,
2013-02-20 08:18:00,32.0,25.3,30.06,SSW,197,0.0,0.0,76,0.00,,,0.00,Wunderground v.1.15,2013-02-20 13:18:00,
2013-02-20 08:19:00,32.2,25.8,30.06,SSW,197,0.0,0.0,77,0.00,,,0.00,Wunderground v.1.15,2013-02-20 13:19:00,
2013-02-20 08:20:00,32.3,25.9,30.05,SSW,197,0.0,0.0,77,0.00,,,0.00,Wunderground v.1.15,2013-02-20 13:20:00,
2013-02-20 08:22:00,32.6,25.6,30.05,SSW,197,0.0,0.0,75,0.00,,,0.00,Wunderground v.1.15,2013-02-20 13:22:00,
2013-02-20 08:23:00,32.6,25.6,30.05,SSW,197,0.0,0.0,75,0.00,,,0.00,Wunderground v.1.15,2013-02-20 13:23:00,
2013-02-20 08:25:00,32.8,25.1,30.06,SSW,197,0.0,0.0,73,0.00,,,0.00,Wunderground v.1.15,2013-02-20 13:25:00,
2013-02-20 08:28:00,33.3,24.9,30.06,West,262,0.0,2.0,71,0.00,,,0.00,Wunderground v.1.15,2013-02-20 13:28:00,
2013-02-20 08:30:00,33.7,24.6,30.06,WSW,249,0.0,0.0,69,0.00,,,0.00,Wunderground v.1.15,2013-02-20 13:30:00,
2013-02-20 08:33:00,34.2,25.4,30.06,SSW,212,0.0,1.0,70,0.00,,,0.00,Wunderground v.1.15,2013-02-20 13:33:00,
2013-02-20 08:35:00,34.5,25.0,30.06,SSW,211,0.0,1.0,68,0.00,,,0.00,Wunderground v.1.15,2013-02-20 13:35:00,
2013-02-20 08:38:00,34.9,25.8,30.06,SSW,211,0.0,1.0,69,0.00,,,0.00,Wunderground v.1.15,2013-02-20 13:38:00,
2013-02-20 08:40:00,35.2,25.7,30.06,SSW,193,1.0,1.0,68,0.00,,,0.00,Wunderground v.1.15,2013-02-20 13:40:00,
2013-02-20 08:41:00,35.3,25.4,30.06,SSW,205,1.0,2.0,67,0.00,,,0.00,Wunderground v.1.15,2013-02-20 13:41:00,
2013-02-20 08:43:00,35.6,25.4,30.06,SSW,198,0.0,2.0,66,0.00,,,0.00,Wunderground v.1.15,2013-02-20 13:43:00,
2013-02-20 08:45:00,36.0,25.0,30.06,SSW,206,1.0,2.0,64,0.00,,,0.00,Wunderground v.1.15,2013-02-20 13:45:00,
2013-02-20 08:46:00,36.0,24.6,30.06,SSW,205,1.0,2.0,63,0.00,,,0.00,Wunderground v.1.15,2013-02-20 13:46:00,
2013-02-20 08:48:00,36.3,24.5,30.06,South,188,0.0,2.0,62,0.00,,,0.00,Wunderground v.1.15,2013-02-20 13:48:00,
2013-02-20 08:51:00,36.5,24.7,30.06,SW,229,1.0,1.0,62,0.00,,,0.00,Wunderground v.1.15,2013-02-20 13:51:00,
2013-02-20 08:53:00,36.7,24.5,30.06,South,176,0.0,2.0,61,0.00,,,0.00,Wunderground v.1.15,2013-02-20 13:53:00,
2013-02-20 08:54:00,36.8,25.0,30.06,South,176,0.0,2.0,62,0.00,,,0.00,Wunderground v.1.15,2013-02-20 13:54:00,
2013-02-20 08:56:00,37.0,24.0,30.06,SW,231,0.0,3.0,59,0.00,,,0.00,Wunderground v.1.15,2013-02-20 13:56:00,
2013-02-20 08:58:00,37.2,22.9,30.06,WSW,240,0.0,3.0,56,0.00,,,0.00,Wunderground v.1.15,2013-02-20 13:58:00,
2013-02-20 08:59:00,37.2,22.9,30.06,WSW,240,1.0,3.0,56,0.00,,,0.00,Wunderground v.1.15,2013-02-20 13:59:00,
2013-02-20 09:01:00,37.4,23.1,30.05,NW,311,0.0,1.0,56,0.00,,,0.00,Wunderground v.1.15,2013-02-20 14:01:00,
2013-02-20 09:04:00,37.6,22.9,30.05,SSW,192,0.0,2.0,55,0.00,,,0.00,Wunderground v.1.15,2013-02-20 14:04:00,
2013-02-20 09:06:00,37.9,23.6,30.05,SW,214,1.0,2.0,56,0.00,,,0.00,Wunderground v.1.15,2013-02-20 14:06:00,
2013-02-20 09:09:00,38.0,21.9,30.06,West,280,2.0,4.0,52,0.00,,,0.00,Wunderground v.1.15,2013-02-20 14:09:00,
2013-02-20 09:11:00,38.3,21.3,30.05,WSW,245,1.0,7.0,50,0.00,,,0.00,Wunderground v.1.15,2013-02-20 14:11:00,
2013-02-20 09:14:00,38.5,21.0,30.05,SW,229,0.0,7.0,49,0.00,,,0.00,Wunderground v.1.15,2013-02-20 14:14:00,
2013-02-20 09:17:00,38.8,21.7,30.05,West,260,2.0,7.0,50,0.00,,,0.00,Wunderground v.1.15,2013-02-20 14:17:00,
2013-02-20 09:19:00,38.9,20.9,30.06,West,264,0.0,7.0,48,0.00,,,0.00,Wunderground v.1.15,2013-02-20 14:19:00,
2013-02-20 09:22:00,39.0,20.5,30.06,SW,225,1.0,6.0,47,0.00,,,0.00,Wunderground v.1.15,2013-02-20 14:22:00,
2013-02-20 09:24:00,39.2,20.6,30.06,SSW,205,1.0,6.0,47,0.00,,,0.00,Wunderground v.1.15,2013-02-20 14:24:00,
2013-02-20 09:27:00,39.4,21.3,30.05,North,11,3.0,6.0,48,0.00,,,0.00,Wunderground v.1.15,2013-02-20 14:27:00,
2013-02-20 09:29:00,39.5,20.9,30.05,SSE,162,1.0,6.0,47,0.00,,,0.00,Wunderground v.1.15,2013-02-20 14:29:00,
2013-02-20 09:32:00,39.7,21.1,30.05,West,281,1.0,5.0,47,0.00,,,0.00,Wunderground v.1.15,2013-02-20 14:32:00,
2013-02-20 09:34:00,39.8,20.7,30.06,WSW,250,3.0,5.0,46,0.00,,,0.00,Wunderground v.1.15,2013-02-20 14:34:00,
2013-02-20 09:35:00,39.8,20.2,30.05,SW,235,0.0,5.0,45,0.00,,,0.00,Wunderground v.1.15,2013-02-20 14:35:00,
2013-02-20 09:37:00,39.9,20.8,30.06,WNW,291,1.0,5.0,46,0.00,,,0.00,Wunderground v.1.15,2013-02-20 14:37:00,
2013-02-20 09:38:00,39.8,20.7,30.06,NNE,27,2.0,5.0,46,0.00,,,0.00,Wunderground v.1.15,2013-02-20 14:38:00,
2013-02-20 09:39:00,39.9,20.8,30.05,WSW,254,0.0,5.0,46,0.00,,,0.00,Wunderground v.1.15,2013-02-20 14:39:00,
2013-02-20 09:40:00,40.0,20.9,30.05,WSW,255,0.0,1.0,46,0.00,,,0.00,Wunderground v.1.15,2013-02-20 14:40:00,
2013-02-20 09:43:00,40.1,21.5,30.06,North,356,0.0,2.0,47,0.00,,,0.00,Wunderground v.1.15,2013-02-20 14:43:00,
2013-02-20 09:44:00,40.1,21.5,30.05,West,271,3.0,4.0,47,0.00,,,0.00,Wunderground v.1.15,2013-02-20 14:44:00,
2013-02-20 09:45:00,40.2,21.0,30.05,NNW,347,3.0,8.0,46,0.00,,,0.00,Wunderground v.1.15,2013-02-20 14:45:00,
2013-02-20 09:48:00,40.3,20.1,30.05,NNE,26,3.0,8.0,44,0.00,,,0.00,Wunderground v.1.15,2013-02-20 14:48:00,
2013-02-20 09:49:00,40.4,19.6,30.06,SSW,205,3.0,8.0,43,0.00,,,0.00,Wunderground v.1.15,2013-02-20 14:49:00,
2013-02-20 09:50:00,40.4,19.1,30.05,NE,46,1.0,3.0,42,0.00,,,0.00,Wunderground v.1.15,2013-02-20 14:50:00,
2013-02-20 09:53:00,40.5,19.7,30.05,WSW,250,3.0,5.0,43,0.00,,,0.00,Wunderground v.1.15,2013-02-20 14:53:00,
2013-02-20 09:54:00,40.6,19.8,30.05,WSW,244,2.0,5.0,43,0.00,,,0.00,Wunderground v.1.15,2013-02-20 14:54:00,
2013-02-20 09:55:00,40.7,20.5,30.05,West,276,1.0,5.0,44,0.00,,,0.00,Wunderground v.1.15,2013-02-20 14:55:00,
2013-02-20 09:58:00,40.8,20.0,30.05,NNE,25,2.0,6.0,43,0.00,,,0.00,Wunderground v.1.15,2013-02-20 14:58:00,
2013-02-20 09:59:00,40.8,18.9,30.05,SW,235,2.0,6.0,41,0.00,,,0.00,Wunderground v.1.15,2013-02-20 14:59:00,
2013-02-20 10:00:00,40.8,19.5,30.05,West,262,6.0,6.0,42,0.00,,,0.00,Wunderground v.1.15,2013-02-20 15:00:00,
2013-02-20 10:01:00,40.9,19.0,30.05,WSW,255,4.0,6.0,41,0.00,,,0.00,Wunderground v.1.15,2013-02-20 15:01:00,
2013-02-20 10:03:00,41.1,19.7,30.05,WSW,248,5.0,8.0,42,0.00,,,0.00,Wunderground v.1.15,2013-02-20 15:03:00,
2013-02-20 10:04:00,41.2,19.8,30.05,SE,134,1.0,8.0,42,0.00,,,0.00,Wunderground v.1.15,2013-02-20 15:04:00,
2013-02-20 10:05:00,41.3,19.9,30.05,NNE,20,1.0,8.0,42,0.00,,,0.00,Wunderground v.1.15,2013-02-20 15:05:00,
2013-02-20 10:06:00,41.4,19.4,30.05,SW,214,1.0,8.0,41,0.00,,,0.00,Wunderground v.1.15,2013-02-20 15:06:00,
2013-02-20 10:08:00,41.6,21.3,30.05,WSW,252,2.0,8.0,44,0.00,,,0.00,Wunderground v.1.15,2013-02-20 15:08:00,
2013-02-20 10:09:00,41.7,20.3,30.05,SSE,167,2.0,8.0,42,0.00,,,0.00,Wunderground v.1.15,2013-02-20 15:09:00,
2013-02-20 10:10:00,41.8,20.9,30.05,West,266,2.0,3.0,43,0.00,,,0.00,Wunderground v.1.15,2013-02-20 15:10:00,
2013-02-20 10:11:00,41.9,19.9,30.05,SSW,200,1.0,3.0,41,0.00,,,0.00,Wunderground v.1.15,2013-02-20 15:11:00,
2013-02-20 10:14:00,42.0,19.4,30.06,South,172,1.0,3.0,40,0.00,,,0.00,Wunderground v.1.15,2013-02-20 15:14:00,
2013-02-20 10:15:00,42.0,19.4,30.06,SE,146,1.0,5.0,40,0.00,,,0.00,Wunderground v.1.15,2013-02-20 15:15:00,
2013-02-20 10:16:00,42.1,19.5,30.06,North,355,1.0,5.0,40,0.00,,,0.00,Wunderground v.1.15,2013-02-20 15:16:00,
2013-02-20 10:19:00,42.2,20.2,30.06,SSE,150,0.0,5.0,41,0.00,,,0.00,Wunderground v.1.15,2013-02-20 15:19:00,
2013-02-20 10:20:00,42.2,19.6,30.06,West,259,0.0,1.0,40,0.00,,,0.00,Wunderground v.1.15,2013-02-20 15:20:00,
2013-02-20 10:21:00,42.2,19.0,30.06,South,169,2.0,2.0,39,0.00,,,0.00,Wunderground v.1.15,2013-02-20 15:21:00,
2013-02-20 10:24:00,42.4,19.2,30.06,SSE,166,2.0,5.0,39,0.00,,,0.00,Wunderground v.1.15,2013-02-20 15:24:00,
2013-02-20 10:26:00,42.5,19.8,30.06,West,280,7.0,7.0,40,0.00,,,0.00,Wunderground v.1.15,2013-02-20 15:26:00,
2013-02-20 10:29:00,42.6,18.1,30.07,NNW,346,5.0,7.0,37,0.00,,,0.00,Wunderground v.1.15,2013-02-20 15:29:00,
2013-02-20 10:31:00,42.6,16.8,30.07,SW,232,2.0,6.0,35,0.00,,,0.00,Wunderground v.1.15,2013-02-20 15:31:00,
2013-02-20 10:34:00,42.5,18.0,30.07,SSW,193,0.0,6.0,37,0.00,,,0.00,Wunderground v.1.15,2013-02-20 15:34:00,
2013-02-20 10:35:00,42.5,18.0,30.07,SSW,202,0.0,6.0,37,0.00,,,0.00,Wunderground v.1.15,2013-02-20 15:35:00,
2013-02-20 10:36:00,42.6,18.7,30.07,ENE,60,3.0,6.0,38,0.00,,,0.00,Wunderground v.1.15,2013-02-20 15:36:00,
2013-02-20 10:40:00,42.8,18.9,30.06,North,6,3.0,4.0,38,0.00,,,0.00,Wunderground v.1.15,2013-02-20 15:40:00,
2013-02-20 10:41:00,42.8,17.7,30.06,WSW,245,2.0,6.0,36,0.00,,,0.00,Wunderground v.1.15,2013-02-20 15:41:00,
2013-02-20 10:45:00,43.1,17.9,30.06,West,280,2.0,6.0,36,0.00,,,0.00,Wunderground v.1.15,2013-02-20 15:45:00,
2013-02-20 10:46:00,43.1,17.9,30.06,SSW,207,4.0,6.0,36,0.00,,,0.00,Wunderground v.1.15,2013-02-20 15:46:00,
2013-02-20 10:50:00,43.3,19.4,30.06,WSW,238,0.0,3.0,38,0.00,,,0.00,Wunderground v.1.15,2013-02-20 15:50:00,
2013-02-20 10:51:00,43.4,19.5,30.06,SE,143,1.0,3.0,38,0.00,,,0.00,Wunderground v.1.15,2013-02-20 15:51:00,
2013-02-20 10:52:00,43.5,18.9,30.07,West,259,5.0,6.0,37,0.00,,,0.00,Wunderground v.1.15,2013-02-20 15:52:00,
2013-02-20 10:55:00,43.6,17.7,30.07,SSW,204,2.0,7.0,35,0.00,,,0.00,Wunderground v.1.15,2013-02-20 15:55:00,
2013-02-20 10:56:00,43.6,17.0,30.07,SSE,158,1.0,10.0,34,0.00,,,0.00,Wunderground v.1.15,2013-02-20 15:56:00,
2013-02-20 10:58:00,43.7,18.5,30.06,WNW,282,2.0,10.0,36,0.00,,,0.00,Wunderground v.1.15,2013-02-20 15:58:00,
2013-02-20 11:00:00,43.8,18.5,30.06,SE,124,1.0,2.0,36,0.00,,,0.00,Wunderground v.1.15,2013-02-20 16:00:00,
2013-02-20 11:01:00,43.8,18.5,30.07,SSW,208,4.0,4.0,36,0.00,,,0.00,Wunderground v.1.15,2013-02-20 16:01:00,
2013-02-20 11:02:00,43.8,17.9,30.06,NNE,30,1.0,4.0,35,0.00,,,0.00,Wunderground v.1.15,2013-02-20 16:02:00,
2013-02-20 11:03:00,43.9,18.0,30.06,ENE,76,0.0,4.0,35,0.00,,,0.00,Wunderground v.1.15,2013-02-20 16:03:00,
2013-02-20 11:05:00,44.1,19.5,30.06,NW,304,2.0,4.0,37,0.00,,,0.00,Wunderground v.1.15,2013-02-20 16:05:00,
2013-02-20 11:06:00,44.1,19.5,30.06,ENE,69,2.0,4.0,37,0.00,,,0.00,Wunderground v.1.15,2013-02-20 16:06:00,
2013-02-20 11:07:00,44.2,18.9,30.06,SW,215,1.0,4.0,36,0.00,,,0.00,Wunderground v.1.15,2013-02-20 16:07:00,
2013-02-20 11:08:00,44.3,19.6,30.06,West,264,3.0,4.0,37,0.00,,,0.00,Wunderground v.1.15,2013-02-20 16:08:00,
2013-02-20 11:11:00,44.3,17.0,30.06,WNW,293,3.0,5.0,33,0.00,,,0.00,Wunderground v.1.15,2013-02-20 16:11:00,
2013-02-20 11:12:00,44.3,16.3,30.06,SSW,203,3.0,5.0,32,0.00,,,0.00,Wunderground v.1.15,2013-02-20 16:12:00,
2013-02-20 11:13:00,44.3,17.0,30.06,ENE,58,3.0,6.0,33,0.00,,,0.00,Wunderground v.1.15,2013-02-20 16:13:00,
2013-02-20 11:16:00,44.2,16.9,30.06,WNW,288,4.0,6.0,33,0.00,,,0.00,Wunderground v.1.15,2013-02-20 16:16:00,
2013-02-20 11:17:00,44.3,17.7,30.06,WSW,252,3.0,6.0,34,0.00,,,0.00,Wunderground v.1.15,2013-02-20 16:17:00,
2013-02-20 11:18:00,44.3,18.3,30.06,NNE,13,2.0,6.0,35,0.00,,,0.00,Wunderground v.1.15,2013-02-20 16:18:00,
2013-02-20 11:21:00,44.5,17.8,30.06,SW,214,4.0,5.0,34,0.00,,,0.00,Wunderground v.1.15,2013-02-20 16:21:00,
2013-02-20 11:22:00,44.5,18.5,30.06,NNE,31,1.0,5.0,35,0.00,,,0.00,Wunderground v.1.15,2013-02-20 16:22:00,
2013-02-20 11:23:00,44.6,17.9,30.06,NE,46,1.0,5.0,34,0.00,,,0.00,Wunderground v.1.15,2013-02-20 16:23:00,
2013-02-20 11:26:00,44.7,18.0,30.06,WSW,240,3.0,8.0,34,0.00,,,0.00,Wunderground v.1.15,2013-02-20 16:26:00,
2013-02-20 11:27:00,44.8,18.1,30.06,NNE,29,3.0,8.0,34,0.00,,,0.00,Wunderground v.1.15,2013-02-20 16:27:00,
2013-02-20 11:29:00,45.0,17.6,30.06,South,187,0.0,8.0,33,0.00,,,0.00,Wunderground v.1.15,2013-02-20 16:29:00,
2013-02-20 11:31:00,45.1,18.4,30.06,West,276,0.0,4.0,34,0.00,,,0.00,Wunderground v.1.15,2013-02-20 16:31:00,
2013-02-20 11:32:00,45.2,17.8,30.06,WSW,242,5.0,5.0,33,0.00,,,0.00,Wunderground v.1.15,2013-02-20 16:32:00,
2013-02-20 11:33:00,45.3,17.8,30.06,SW,218,4.0,6.0,33,0.00,,,0.00,Wunderground v.1.15,2013-02-20 16:33:00,
2013-02-20 11:34:00,45.4,17.2,30.06,NE,43,1.0,6.0,32,0.00,,,0.00,Wunderground v.1.15,2013-02-20 16:34:00,
2013-02-20 11:36:00,45.5,17.3,30.05,SW,236,3.0,6.0,32,0.00,,,0.00,Wunderground v.1.15,2013-02-20 16:36:00,
2013-02-20 11:37:00,45.6,18.8,30.05,ENE,59,6.0,8.0,34,0.00,,,0.00,Wunderground v.1.15,2013-02-20 16:37:00,
2013-02-20 11:38:00,45.6,16.7,30.05,West,259,3.0,8.0,31,0.00,,,0.00,Wunderground v.1.15,2013-02-20 16:38:00,
2013-02-20 11:39:00,45.5,16.6,30.05,NW,310,4.0,9.0,31,0.00,,,0.00,Wunderground v.1.15,2013-02-20 16:39:00,
2013-02-20 11:41:00,45.5,17.3,30.05,South,169,2.0,6.0,32,0.00,,,0.00,Wunderground v.1.15,2013-02-20 16:41:00,
2013-02-20 11:42:00,45.5,17.3,30.05,SSW,195,2.0,6.0,32,0.00,,,0.00,Wunderground v.1.15,2013-02-20 16:42:00,
2013-02-20 11:43:00,45.6,17.4,30.05,NNW,340,1.0,6.0,32,0.00,,,0.00,Wunderground v.1.15,2013-02-20 16:43:00,
2013-02-20 11:45:00,45.8,19.7,30.05,ENE,72,2.0,6.0,35,0.00,,,0.00,Wunderground v.1.15,2013-02-20 16:45:00,
2013-02-20 11:46:00,45.9,19.8,30.05,NE,53,2.0,6.0,35,0.00,,,0.00,Wunderground v.1.15,2013-02-20 16:46:00,
2013-02-20 11:47:00,46.0,18.5,30.05,West,281,5.0,6.0,33,0.00,,,0.00,Wunderground v.1.15,2013-02-20 16:47:00,
2013-02-20 11:48:00,46.1,17.8,30.05,SSE,158,1.0,6.0,32,0.00,,,0.00,Wunderground v.1.15,2013-02-20 16:48:00,
2013-02-20 11:50:00,46.1,17.8,30.05,WNW,299,3.0,5.0,32,0.00,,,0.00,Wunderground v.1.15,2013-02-20 16:50:00,
2013-02-20 11:51:00,46.0,17.0,30.05,SSW,210,3.0,5.0,31,0.00,,,0.00,Wunderground v.1.15,2013-02-20 16:51:00,
2013-02-20 11:53:00,45.9,17.7,30.05,SW,225,2.0,6.0,32,0.00,,,0.00,Wunderground v.1.15,2013-02-20 16:53:00,
2013-02-20 11:54:00,45.9,17.7,30.05,WSW,252,4.0,6.0,32,0.00,,,0.00,Wunderground v.1.15,2013-02-20 16:54:00,
2013-02-20 11:55:00,45.9,17.7,30.05,SSW,198,2.0,6.0,32,0.00,,,0.00,Wunderground v.1.15,2013-02-20 16:55:00,
2013-02-20 11:56:00,46.0,17.7,30.05,West,260,3.0,10.0,32,0.00,,,0.00,Wunderground v.1.15,2013-02-20 16:56:00,
2013-02-20 11:58:00,46.2,17.2,30.05,NW,321,1.0,10.0,31,0.00,,,0.00,Wunderground v.1.15,2013-02-20 16:58:00,
2013-02-20 11:59:00,46.3,18.0,30.05,West,263,2.0,10.0,32,0.00,,,0.00,Wunderground v.1.15,2013-02-20 16:59:00,
2013-02-20 12:00:00,46.5,18.2,30.05,South,190,3.0,3.0,32,0.00,,,0.00,Wunderground v.1.15,2013-02-20 17:00:00,
2013-02-20 12:01:00,46.6,19.0,30.05,South,173,2.0,3.0,33,0.00,,,0.00,Wunderground v.1.15,2013-02-20 17:01:00,
2013-02-20 12:03:00,46.8,18.5,30.05,WSW,252,5.0,5.0,32,0.00,,,0.00,Wunderground v.1.15,2013-02-20 17:03:00,
2013-02-20 12:04:00,46.9,18.5,30.05,SW,233,3.0,6.0,32,0.00,,,0.00,Wunderground v.1.15,2013-02-20 17:04:00,
2013-02-20 12:06:00,47.0,17.9,30.05,South,169,2.0,6.0,31,0.00,,,0.00,Wunderground v.1.15,2013-02-20 17:06:00,
2013-02-20 12:08:00,47.1,18.7,30.04,SW,215,4.0,6.0,32,0.00,,,0.00,Wunderground v.1.15,2013-02-20 17:08:00,
2013-02-20 12:09:00,47.1,18.7,30.04,South,186,2.0,6.0,32,0.00,,,0.00,Wunderground v.1.15,2013-02-20 17:09:00,
2013-02-20 12:11:00,47.1,18.7,30.04,SSW,198,0.0,3.0,32,0.00,,,0.00,Wunderground v.1.15,2013-02-20 17:11:00,
2013-02-20 12:13:00,47.3,19.6,30.04,NE,51,3.0,4.0,33,0.00,,,0.00,Wunderground v.1.15,2013-02-20 17:13:00,
2013-02-20 12:14:00,47.3,18.1,30.04,ENE,68,1.0,4.0,31,0.00,,,0.00,Wunderground v.1.15,2013-02-20 17:14:00,
2013-02-20 12:16:00,47.3,19.6,30.04,SW,222,3.0,4.0,33,0.00,,,0.00,Wunderground v.1.15,2013-02-20 17:16:00,
2013-02-20 12:19:00,47.4,19.7,30.04,SE,126,0.0,4.0,33,0.00,,,0.00,Wunderground v.1.15,2013-02-20 17:19:00,
2013-02-20 12:21:00,47.7,21.3,30.04,SSW,203,1.0,2.0,35,0.00,,,0.00,Wunderground v.1.15,2013-02-20 17:21:00,
2013-02-20 12:24:00,48.1,21.0,30.04,North,1,0.0,5.0,34,0.00,,,0.00,Wunderground v.1.15,2013-02-20 17:24:00,
2013-02-20 12:25:00,48.1,19.6,30.04,SSW,207,3.0,5.0,32,0.00,,,0.00,Wunderground v.1.15,2013-02-20 17:25:00,
2013-02-20 12:26:00,48.1,20.3,30.04,West,271,3.0,5.0,33,0.00,,,0.00,Wunderground v.1.15,2013-02-20 17:26:00,
2013-02-20 12:29:00,48.3,20.5,30.04,South,184,0.0,5.0,33,0.00,,,0.00,Wunderground v.1.15,2013-02-20 17:29:00,
2013-02-20 12:30:00,48.3,20.5,30.03,SE,136,1.0,1.0,33,0.00,,,0.00,Wunderground v.1.15,2013-02-20 17:30:00,
2013-02-20 12:31:00,48.4,20.6,30.03,West,269,1.0,2.0,33,0.00,,,0.00,Wunderground v.1.15,2013-02-20 17:31:00,
2013-02-20 12:32:00,48.4,20.6,30.03,West,269,0.0,2.0,33,0.00,,,0.00,Wunderground v.1.15,2013-02-20 17:32:00,
2013-02-20 12:34:00,48.7,22.2,30.03,WSW,243,2.0,2.0,35,0.00,,,0.00,Wunderground v.1.15,2013-02-20 17:34:00,
2013-02-20 12:35:00,48.8,21.6,30.03,SW,233,1.0,3.0,34,0.00,,,0.00,Wunderground v.1.15,2013-02-20 17:35:00,
2013-02-20 12:37:00,49.0,20.4,30.04,SSW,201,3.0,4.0,32,0.00,,,0.00,Wunderground v.1.15,2013-02-20 17:37:00,
2013-02-20 12:39:00,48.9,20.3,30.03,WSW,240,3.0,4.0,32,0.00,,,0.00,Wunderground v.1.15,2013-02-20 17:39:00,
2013-02-20 12:40:00,48.9,18.8,30.03,ESE,108,1.0,2.0,30,0.00,,,0.00,Wunderground v.1.15,2013-02-20 17:40:00,
2013-02-20 12:42:00,48.8,19.5,30.03,SSW,198,4.0,6.0,31,0.00,,,0.00,Wunderground v.1.15,2013-02-20 17:42:00,
2013-02-20 12:44:00,48.6,19.3,30.03,SSW,208,2.0,8.0,31,0.00,,,0.00,Wunderground v.1.15,2013-02-20 17:44:00,
2013-02-20 12:45:00,48.6,18.5,30.03,SSE,154,3.0,8.0,30,0.00,,,0.00,Wunderground v.1.15,2013-02-20 17:45:00,
2013-02-20 12:47:00,48.7,19.4,30.03,WSW,241,1.0,8.0,31,0.00,,,0.00,Wunderground v.1.15,2013-02-20 17:47:00,
2013-02-20 12:49:00,48.6,18.5,30.02,SW,225,5.0,8.0,30,0.00,,,0.00,Wunderground v.1.15,2013-02-20 17:49:00,
2013-02-20 12:50:00,48.6,18.5,30.02,SW,225,1.0,2.0,30,0.00,,,0.00,Wunderground v.1.15,2013-02-20 17:50:00,
2013-02-20 12:52:00,48.5,17.6,30.02,SW,218,5.0,5.0,29,0.00,,,0.00,Wunderground v.1.15,2013-02-20 17:52:00,
2013-02-20 12:54:00,48.5,16.8,30.02,SE,124,2.0,9.0,28,0.00,,,0.00,Wunderground v.1.15,2013-02-20 17:54:00,
2013-02-20 12:55:00,48.5,16.8,30.02,WSW,252,2.0,9.0,28,0.00,,,0.00,Wunderground v.1.15,2013-02-20 17:55:00,
2013-02-20 12:57:00,48.5,19.2,30.02,South,186,3.0,9.0,31,0.00,,,0.00,Wunderground v.1.15,2013-02-20 17:57:00,
2013-02-20 13:00:00,48.8,17.9,30.01,WSW,239,2.0,3.0,29,0.00,,,0.00,Wunderground v.1.15,2013-02-20 18:00:00,
2013-02-20 13:01:00,48.8,18.7,30.01,SSW,203,2.0,3.0,30,0.00,,,0.00,Wunderground v.1.15,2013-02-20 18:01:00,
2013-02-20 13:02:00,49.0,19.6,30.01,WNW,293,6.0,6.0,31,0.00,,,0.00,Wunderground v.1.15,2013-02-20 18:02:00,
2013-02-20 13:03:00,49.0,18.1,30.01,NW,323,1.0,6.0,29,0.00,,,0.00,Wunderground v.1.15,2013-02-20 18:03:00,
2013-02-20 13:05:00,49.2,17.4,30.01,WSW,252,5.0,9.0,28,0.00,,,0.00,Wunderground v.1.15,2013-02-20 18:05:00,
2013-02-20 13:06:00,49.1,16.5,30.01,South,176,1.0,9.0,27,0.00,,,0.00,Wunderground v.1.15,2013-02-20 18:06:00,
2013-02-20 13:07:00,49.1,16.5,30.01,NNE,13,1.0,9.0,27,0.00,,,0.00,Wunderground v.1.15,2013-02-20 18:07:00,
2013-02-20 13:08:00,49.1,17.3,30.01,SE,139,3.0,9.0,28,0.00,,,0.00,Wunderground v.1.15,2013-02-20 18:08:00,
2013-02-20 13:10:00,49.2,19.0,30.01,WNW,298,5.0,5.0,30,0.00,,,0.00,Wunderground v.1.15,2013-02-20 18:10:00,
2013-02-20 13:11:00,49.3,16.7,30.00,SW,214,3.0,5.0,27,0.00,,,0.00,Wunderground v.1.15,2013-02-20 18:11:00,
2013-02-20 13:12:00,49.3,16.7,30.01,WSW,257,4.0,7.0,27,0.00,,,0.00,Wunderground v.1.15,2013-02-20 18:12:00,
2013-02-20 13:13:00,49.3,16.7,30.00,SSW,212,1.0,7.0,27,0.00,,,0.00,Wunderground v.1.15,2013-02-20 18:13:00,
2013-02-20 13:15:00,49.4,16.8,30.00,South,169,2.0,7.0,27,0.00,,,0.00,Wunderground v.1.15,2013-02-20 18:15:00,
2013-02-20 13:17:00,49.4,17.6,30.00,East,89,1.0,7.0,28,0.00,,,0.00,Wunderground v.1.15,2013-02-20 18:17:00,
2013-02-20 13:18:00,49.6,17.8,30.00,SSW,193,1.0,7.0,28,0.00,,,0.00,Wunderground v.1.15,2013-02-20 18:18:00,
2013-02-20 13:20:00,49.8,17.1,30.00,South,183,3.0,10.0,27,0.00,,,0.00,Wunderground v.1.15,2013-02-20 18:20:00,
2013-02-20 13:22:00,49.9,16.3,30.00,WSW,248,5.0,10.0,26,0.00,,,0.00,Wunderground v.1.15,2013-02-20 18:22:00,
2013-02-20 13:23:00,49.9,15.4,30.00,South,180,3.0,10.0,25,0.00,,,0.00,Wunderground v.1.15,2013-02-20 18:23:00,
2013-02-20 13:26:00,49.8,15.3,30.00,SSW,208,3.0,10.0,25,0.00,,,0.00,Wunderground v.1.15,2013-02-20 18:26:00,
2013-02-20 13:27:00,49.8,16.2,30.00,SSW,205,2.0,10.0,26,0.00,,,0.00,Wunderground v.1.15,2013-02-20 18:27:00,
2013-02-20 13:28:00,49.8,16.2,30.00,West,276,5.0,10.0,26,0.00,,,0.00,Wunderground v.1.15,2013-02-20 18:28:00,
2013-02-20 13:29:00,49.7,16.2,30.00,NE,53,1.0,10.0,26,0.00,,,0.00,Wunderground v.1.15,2013-02-20 18:29:00,
2013-02-20 13:31:00,49.8,17.1,30.00,ESE,120,0.0,3.0,27,0.00,,,0.00,Wunderground v.1.15,2013-02-20 18:31:00,
2013-02-20 13:32:00,49.9,17.2,30.00,SW,217,1.0,3.0,27,0.00,,,0.00,Wunderground v.1.15,2013-02-20 18:32:00,
2013-02-20 13:33:00,50.0,18.1,30.00,ESE,110,1.0,4.0,28,0.00,,,0.00,Wunderground v.1.15,2013-02-20 18:33:00,
2013-02-20 13:34:00,50.1,17.4,30.00,West,259,3.0,6.0,27,0.00,,,0.00,Wunderground v.1.15,2013-02-20 18:34:00,
2013-02-20 13:36:00,50.1,17.4,30.00,NE,43,1.0,6.0,27,0.00,,,0.00,Wunderground v.1.15,2013-02-20 18:36:00,
2013-02-20 13:37:00,50.2,17.5,30.00,NE,44,2.0,8.0,27,0.00,,,0.00,Wunderground v.1.15,2013-02-20 18:37:00,
2013-02-20 13:38:00,50.1,16.5,30.00,WSW,238,4.0,9.0,26,0.00,,,0.00,Wunderground v.1.15,2013-02-20 18:38:00,
2013-02-20 13:40:00,50.1,16.5,30.00,WSW,245,2.0,2.0,26,0.00,,,0.00,Wunderground v.1.15,2013-02-20 18:40:00,
2013-02-20 13:41:00,50.1,16.5,29.99,WNW,297,1.0,2.0,26,0.00,,,0.00,Wunderground v.1.15,2013-02-20 18:41:00,
2013-02-20 13:42:00,50.2,17.5,29.99,South,170,0.0,3.0,27,0.00,,,0.00,Wunderground v.1.15,2013-02-20 18:42:00,
2013-02-20 13:43:00,50.3,17.5,29.99,South,172,2.0,4.0,27,0.00,,,0.00,Wunderground v.1.15,2013-02-20 18:43:00,
2013-02-20 13:45:00,50.4,16.8,29.99,SSW,193,5.0,6.0,26,0.00,,,0.00,Wunderground v.1.15,2013-02-20 18:45:00,
2013-02-20 13:46:00,50.4,16.8,29.99,West,266,2.0,6.0,26,0.00,,,0.00,Wunderground v.1.15,2013-02-20 18:46:00,
2013-02-20 13:47:00,50.5,17.7,29.99,South,173,1.0,7.0,27,0.00,,,0.00,Wunderground v.1.15,2013-02-20 18:47:00,
2013-02-20 13:48:00,50.5,17.7,29.99,SW,215,0.0,7.0,27,0.00,,,0.00,Wunderground v.1.15,2013-02-20 18:48:00,
2013-02-20 13:50:00,50.7,18.7,29.99,SSW,193,1.0,2.0,28,0.00,,,0.00,Wunderground v.1.15,2013-02-20 18:50:00,
2013-02-20 13:51:00,50.9,18.1,29.99,North,355,1.0,4.0,27,0.00,,,0.00,Wunderground v.1.15,2013-02-20 18:51:00,
2013-02-20 13:53:00,51.1,18.2,29.99,ESE,122,1.0,4.0,27,0.00,,,0.00,Wunderground v.1.15,2013-02-20 18:53:00,
2013-02-20 13:55:00,51.3,18.4,29.99,SSW,195,2.0,10.0,27,0.00,,,0.00,Wunderground v.1.15,2013-02-20 18:55:00,
2013-02-20 13:56:00,51.4,18.5,29.99,SSW,212,4.0,10.0,27,0.00,,,0.00,Wunderground v.1.15,2013-02-20 18:56:00,
2013-02-20 13:58:00,51.5,18.6,29.99,SSW,197,2.0,10.0,27,0.00,,,0.00,Wunderground v.1.15,2013-02-20 18:58:00,
2013-02-20 13:59:00,51.5,17.7,29.99,South,181,3.0,10.0,26,0.00,,,0.00,Wunderground v.1.15,2013-02-20 18:59:00,
2013-02-20 14:00:00,51.4,17.6,29.99,SW,233,6.0,6.0,26,0.00,,,0.00,Wunderground v.1.15,2013-02-20 19:00:00,
2013-02-20 14:02:00,51.2,16.5,29.99,West,271,4.0,9.0,25,0.00,,,0.00,Wunderground v.1.15,2013-02-20 19:02:00,
2013-02-20 14:03:00,51.1,16.4,29.99,West,280,2.0,9.0,25,0.00,,,0.00,Wunderground v.1.15,2013-02-20 19:03:00,
2013-02-20 14:04:00,51.0,16.4,29.99,WNW,297,2.0,9.0,25,0.00,,,0.00,Wunderground v.1.15,2013-02-20 19:04:00,
2013-02-20 14:05:00,50.9,16.3,29.99,WSW,258,4.0,9.0,25,0.00,,,0.00,Wunderground v.1.15,2013-02-20 19:05:00,
2013-02-20 14:06:00,50.8,16.2,29.99,SSW,212,4.0,9.0,25,0.00,,,0.00,Wunderground v.1.15,2013-02-20 19:06:00,
2013-02-20 14:08:00,50.8,16.2,29.99,WSW,255,4.0,9.0,25,0.00,,,0.00,Wunderground v.1.15,2013-02-20 19:08:00,
2013-02-20 14:09:00,50.8,16.2,29.99,West,281,0.0,9.0,25,0.00,,,0.00,Wunderground v.1.15,2013-02-20 19:09:00,
2013-02-20 14:11:00,50.8,17.1,29.99,SSW,207,1.0,3.0,26,0.00,,,0.00,Wunderground v.1.15,2013-02-20 19:11:00,
2013-02-20 14:12:00,50.8,16.2,29.99,WSW,238,3.0,3.0,25,0.00,,,0.00,Wunderground v.1.15,2013-02-20 19:12:00,
2013-02-20 14:13:00,50.9,17.2,29.99,SW,222,1.0,3.0,26,0.00,,,0.00,Wunderground v.1.15,2013-02-20 19:13:00,
2013-02-20 14:14:00,51.0,17.3,29.99,SW,221,0.0,3.0,26,0.00,,,0.00,Wunderground v.1.15,2013-02-20 19:14:00,
2013-02-20 14:16:00,51.3,18.4,29.99,WSW,239,4.0,4.0,27,0.00,,,0.00,Wunderground v.1.15,2013-02-20 19:16:00,
2013-02-20 14:17:00,51.5,17.7,29.99,West,281,4.0,6.0,26,0.00,,,0.00,Wunderground v.1.15,2013-02-20 19:17:00,
2013-02-20 14:18:00,51.5,16.8,29.99,West,273,2.0,6.0,25,0.00,,,0.00,Wunderground v.1.15,2013-02-20 19:18:00,
2013-02-20 14:19:00,51.5,16.8,29.98,WNW,288,0.0,6.0,25,0.00,,,0.00,Wunderground v.1.15,2013-02-20 19:19:00,
2013-02-20 14:21:00,51.6,16.9,29.99,SW,235,3.0,5.0,25,0.00,,,0.00,Wunderground v.1.15,2013-02-20 19:21:00,
2013-02-20 14:23:00,51.6,17.8,29.98,South,173,2.0,5.0,26,0.00,,,0.00,Wunderground v.1.15,2013-02-20 19:23:00,
2013-02-20 14:24:00,51.8,18.0,29.99,WSW,258,3.0,6.0,26,0.00,,,0.00,Wunderground v.1.15,2013-02-20 19:24:00,
2013-02-20 14:26:00,51.8,18.0,29.98,ESE,106,3.0,6.0,26,0.00,,,0.00,Wunderground v.1.15,2013-02-20 19:26:00,
2013-02-20 14:28:00,51.9,17.1,29.98,WNW,294,1.0,6.0,25,0.00,,,0.00,Wunderground v.1.15,2013-02-20 19:28:00,
2013-02-20 14:30:00,51.9,17.1,29.98,West,263,1.0,3.0,25,0.00,,,0.00,Wunderground v.1.15,2013-02-20 19:30:00,
2013-02-20 14:31:00,52.0,19.9,29.98,West,260,2.0,5.0,28,0.00,,,0.00,Wunderground v.1.15,2013-02-20 19:31:00,
2013-02-20 14:33:00,52.1,18.2,29.98,NE,35,1.0,5.0,26,0.00,,,0.00,Wunderground v.1.15,2013-02-20 19:33:00,
2013-02-20 14:35:00,52.2,18.3,29.98,South,188,1.0,5.0,26,0.00,,,0.00,Wunderground v.1.15,2013-02-20 19:35:00,
2013-02-20 14:36:00,52.2,18.3,29.98,WSW,245,6.0,6.0,26,0.00,,,0.00,Wunderground v.1.15,2013-02-20 19:36:00,
2013-02-20 14:38:00,52.2,17.4,29.98,West,267,1.0,6.0,25,0.00,,,0.00,Wunderground v.1.15,2013-02-20 19:38:00,
2013-02-20 14:40:00,52.2,17.4,29.98,WNW,303,1.0,5.0,25,0.00,,,0.00,Wunderground v.1.15,2013-02-20 19:40:00,
2013-02-20 14:41:00,52.2,17.4,29.98,West,264,2.0,5.0,25,0.00,,,0.00,Wunderground v.1.15,2013-02-20 19:41:00,
2013-02-20 14:43:00,52.1,17.3,29.98,NE,56,3.0,5.0,25,0.00,,,0.00,Wunderground v.1.15,2013-02-20 19:43:00,
2013-02-20 14:45:00,52.1,17.3,29.98,WNW,298,2.0,5.0,25,0.00,,,0.00,Wunderground v.1.15,2013-02-20 19:45:00,
2013-02-20 14:47:00,52.2,18.3,29.98,SSW,211,2.0,5.0,26,0.00,,,0.00,Wunderground v.1.15,2013-02-20 19:47:00,
2013-02-20 14:48:00,52.4,18.5,29.98,WSW,252,2.0,5.0,26,0.00,,,0.00,Wunderground v.1.15,2013-02-20 19:48:00,
2013-02-20 14:49:00,52.4,18.5,29.98,NNW,330,2.0,5.0,26,0.00,,,0.00,Wunderground v.1.15,2013-02-20 19:49:00,
2013-02-20 14:51:00,52.5,17.6,29.98,SSW,205,4.0,5.0,25,0.00,,,0.00,Wunderground v.1.15,2013-02-20 19:51:00,
2013-02-20 14:52:00,52.4,16.6,29.98,SW,236,5.0,6.0,24,0.00,,,0.00,Wunderground v.1.15,2013-02-20 19:52:00,
2013-02-20 14:53:00,52.4,17.6,29.98,West,274,1.0,6.0,25,0.00,,,0.00,Wunderground v.1.15,2013-02-20 19:53:00,
2013-02-20 14:54:00,52.4,17.6,29.98,WNW,288,1.0,6.0,25,0.00,,,0.00,Wunderground v.1.15,2013-02-20 19:54:00,
2013-02-20 14:56:00,52.4,17.6,29.98,WSW,256,1.0,6.0,25,0.00,,,0.00,Wunderground v.1.15,2013-02-20 19:56:00,
2013-02-20 14:57:00,52.5,17.6,29.98,ESE,110,1.0,6.0,25,0.00,,,0.00,Wunderground v.1.15,2013-02-20 19:57:00,
2013-02-20 14:58:00,52.5,15.7,29.98,NW,310,3.0,6.0,23,0.00,,,0.00,Wunderground v.1.15,2013-02-20 19:58:00,
2013-02-20 14:59:00,52.5,15.7,29.98,NW,307,2.0,6.0,23,0.00,,,0.00,Wunderground v.1.15,2013-02-20 19:59:00,
2013-02-20 15:01:00,52.4,16.6,29.98,NNW,347,1.0,7.0,24,0.00,,,0.00,Wunderground v.1.15,2013-02-20 20:01:00,
2013-02-20 15:02:00,52.3,17.5,29.98,SW,217,1.0,7.0,25,0.00,,,0.00,Wunderground v.1.15,2013-02-20 20:02:00,
2013-02-20 15:04:00,52.2,16.4,29.98,WSW,242,5.0,9.0,24,0.00,,,0.00,Wunderground v.1.15,2013-02-20 20:04:00,
2013-02-20 15:06:00,52.1,16.4,29.98,East,88,2.0,9.0,24,0.00,,,0.00,Wunderground v.1.15,2013-02-20 20:06:00,
2013-02-20 15:07:00,52.1,16.4,29.98,West,262,3.0,9.0,24,0.00,,,0.00,Wunderground v.1.15,2013-02-20 20:07:00,
2013-02-20 15:09:00,52.0,16.3,29.98,SW,226,2.0,9.0,24,0.00,,,0.00,Wunderground v.1.15,2013-02-20 20:09:00,
2013-02-20 15:11:00,52.1,16.4,29.97,NW,311,1.0,7.0,24,0.00,,,0.00,Wunderground v.1.15,2013-02-20 20:11:00,
2013-02-20 15:12:00,52.2,17.4,29.97,SSW,193,2.0,7.0,25,0.00,,,0.00,Wunderground v.1.15,2013-02-20 20:12:00,
2013-02-20 15:14:00,52.5,18.6,29.97,East,93,1.0,7.0,26,0.00,,,0.00,Wunderground v.1.15,2013-02-20 20:14:00,
2013-02-20 15:16:00,52.7,16.9,29.97,North,351,2.0,10.0,24,0.00,,,0.00,Wunderground v.1.15,2013-02-20 20:16:00,
2013-02-20 15:18:00,52.7,16.9,29.97,SW,225,3.0,10.0,24,0.00,,,0.00,Wunderground v.1.15,2013-02-20 20:18:00,
2013-02-20 15:19:00,52.6,15.8,29.97,WSW,245,1.0,10.0,23,0.00,,,0.00,Wunderground v.1.15,2013-02-20 20:19:00,
2013-02-20 15:21:00,52.6,15.8,29.97,South,191,2.0,4.0,23,0.00,,,0.00,Wunderground v.1.15,2013-02-20 20:21:00,
2013-02-20 15:23:00,52.7,16.9,29.97,SSW,193,2.0,4.0,24,0.00,,,0.00,Wunderground v.1.15,2013-02-20 20:23:00,
2013-02-20 15:24:00,52.8,16.9,29.97,SW,217,3.0,4.0,24,0.00,,,0.00,Wunderground v.1.15,2013-02-20 20:24:00,
2013-02-20 15:26:00,53.0,17.1,29.97,SE,127,3.0,4.0,24,0.00,,,0.00,Wunderground v.1.15,2013-02-20 20:26:00,
2013-02-20 15:28:00,53.2,17.3,29.97,SW,225,2.0,5.0,24,0.00,,,0.00,Wunderground v.1.15,2013-02-20 20:28:00,
2013-02-20 15:29:00,53.2,17.3,29.98,WSW,240,1.0,5.0,24,0.00,,,0.00,Wunderground v.1.15,2013-02-20 20:29:00,
2013-02-20 15:32:00,53.1,16.2,29.97,ENE,65,1.0,11.0,23,0.00,,,0.00,Wunderground v.1.15,2013-02-20 20:32:00,
2013-02-20 15:33:00,53.0,16.1,29.97,West,269,4.0,11.0,23,0.00,,,0.00,Wunderground v.1.15,2013-02-20 20:33:00,
2013-02-20 15:34:00,52.9,17.0,29.98,NNW,336,2.0,11.0,24,0.00,,,0.00,Wunderground v.1.15,2013-02-20 20:34:00,
2013-02-20 15:37:00,52.7,15.9,29.97,SW,230,3.0,11.0,23,0.00,,,0.00,Wunderground v.1.15,2013-02-20 20:37:00,
2013-02-20 15:38:00,52.6,15.8,29.98,SE,139,1.0,11.0,23,0.00,,,0.00,Wunderground v.1.15,2013-02-20 20:38:00,
2013-02-20 15:39:00,52.6,16.8,29.97,North,360,2.0,11.0,24,0.00,,,0.00,Wunderground v.1.15,2013-02-20 20:39:00,
2013-02-20 15:40:00,52.6,16.8,29.97,NNW,347,2.0,11.0,24,0.00,,,0.00,Wunderground v.1.15,2013-02-20 20:40:00,
2013-02-20 15:42:00,52.4,15.6,29.97,WSW,250,2.0,7.0,23,0.00,,,0.00,Wunderground v.1.15,2013-02-20 20:42:00,
2013-02-20 15:43:00,52.4,16.6,29.97,SSW,207,2.0,7.0,24,0.00,,,0.00,Wunderground v.1.15,2013-02-20 20:43:00,
2013-02-20 15:44:00,52.4,16.6,29.97,SW,236,0.0,7.0,24,0.00,,,0.00,Wunderground v.1.15,2013-02-20 20:44:00,
2013-02-20 15:45:00,52.4,16.6,29.97,East,93,1.0,7.0,24,0.00,,,0.00,Wunderground v.1.15,2013-02-20 20:45:00,
2013-02-20 15:48:00,52.5,16.7,29.97,SSW,208,3.0,8.0,24,0.00,,,0.00,Wunderground v.1.15,2013-02-20 20:48:00,
2013-02-20 15:49:00,52.5,16.7,29.97,NNE,32,4.0,8.0,24,0.00,,,0.00,Wunderground v.1.15,2013-02-20 20:49:00,
2013-02-20 15:50:00,52.4,16.6,29.97,South,176,1.0,2.0,24,0.00,,,0.00,Wunderground v.1.15,2013-02-20 20:50:00,
2013-02-20 15:53:00,52.4,16.6,29.97,ENE,64,2.0,7.0,24,0.00,,,0.00,Wunderground v.1.15,2013-02-20 20:53:00,
2013-02-20 15:54:00,52.4,17.6,29.97,SSW,210,2.0,7.0,25,0.00,,,0.00,Wunderground v.1.15,2013-02-20 20:54:00,
2013-02-20 15:55:00,52.4,17.6,29.97,SSW,212,1.0,7.0,25,0.00,,,0.00,Wunderground v.1.15,2013-02-20 20:55:00,
2013-02-20 15:58:00,52.5,17.6,29.97,WSW,256,1.0,7.0,25,0.00,,,0.00,Wunderground v.1.15,2013-02-20 20:58:00,
2013-02-20 15:59:00,52.5,16.7,29.97,NW,304,2.0,7.0,24,0.00,,,0.00,Wunderground v.1.15,2013-02-20 20:59:00,
2013-02-20 16:00:00,52.4,16.6,29.97,ENE,70,1.0,2.0,24,0.00,,,0.00,Wunderground v.1.15,2013-02-20 21:00:00,
2013-02-20 16:04:00,52.3,16.5,29.97,NE,38,0.0,3.0,24,0.00,,,0.00,Wunderground v.1.15,2013-02-20 21:04:00,
2013-02-20 16:05:00,52.2,16.4,29.97,SW,235,2.0,4.0,24,0.00,,,0.00,Wunderground v.1.15,2013-02-20 21:05:00,
2013-02-20 16:09:00,52.0,17.2,29.97,SSW,198,1.0,4.0,25,0.00,,,0.00,Wunderground v.1.15,2013-02-20 21:09:00,
2013-02-20 16:10:00,52.0,17.2,29.97,NE,42,1.0,3.0,25,0.00,,,0.00,Wunderground v.1.15,2013-02-20 21:10:00,
2013-02-20 16:14:00,51.9,17.1,29.97,WSW,257,1.0,6.0,25,0.00,,,0.00,Wunderground v.1.15,2013-02-20 21:14:00,
2013-02-20 16:15:00,51.8,16.1,29.97,SSW,205,4.0,7.0,24,0.00,,,0.00,Wunderground v.1.15,2013-02-20 21:15:00,
2013-02-20 16:16:00,51.8,16.1,29.98,West,274,3.0,7.0,24,0.00,,,0.00,Wunderground v.1.15,2013-02-20 21:16:00,
2013-02-20 16:19:00,51.8,17.0,29.98,SSW,200,3.0,7.0,25,0.00,,,0.00,Wunderground v.1.15,2013-02-20 21:19:00,
2013-02-20 16:21:00,51.8,17.0,29.98,WSW,248,0.0,4.0,25,0.00,,,0.00,Wunderground v.1.15,2013-02-20 21:21:00,
2013-02-20 16:24:00,51.9,18.0,29.98,WSW,240,2.0,4.0,26,0.00,,,0.00,Wunderground v.1.15,2013-02-20 21:24:00,
2013-02-20 16:25:00,51.9,17.1,29.98,WNW,285,2.0,4.0,25,0.00,,,0.00,Wunderground v.1.15,2013-02-20 21:25:00,
2013-02-20 16:26:00,52.0,17.2,29.98,WSW,239,0.0,4.0,25,0.00,,,0.00,Wunderground v.1.15,2013-02-20 21:26:00,
2013-02-20 16:29:00,52.1,19.1,29.98,West,276,1.0,4.0,27,0.00,,,0.00,Wunderground v.1.15,2013-02-20 21:29:00,
2013-02-20 16:30:00,52.2,18.3,29.98,NNW,343,2.0,3.0,26,0.00,,,0.00,Wunderground v.1.15,2013-02-20 21:30:00,
2013-02-20 16:31:00,52.2,18.3,29.98,WSW,252,1.0,3.0,26,0.00,,,0.00,Wunderground v.1.15,2013-02-20 21:31:00,
2013-02-20 16:34:00,52.2,17.4,29.98,SSW,212,1.0,5.0,25,0.00,,,0.00,Wunderground v.1.15,2013-02-20 21:34:00,
2013-02-20 16:35:00,52.2,19.2,29.98,SSE,160,1.0,5.0,27,0.00,,,0.00,Wunderground v.1.15,2013-02-20 21:35:00,
2013-02-20 16:36:00,52.2,19.2,29.98,SW,232,1.0,5.0,27,0.00,,,0.00,Wunderground v.1.15,2013-02-20 21:36:00,
2013-02-20 16:39:00,52.2,18.3,29.98,SSW,204,0.0,5.0,26,0.00,,,0.00,Wunderground v.1.15,2013-02-20 21:39:00,
2013-02-20 16:40:00,52.2,18.3,29.98,SW,230,1.0,1.0,26,0.00,,,0.00,Wunderground v.1.15,2013-02-20 21:40:00,
2013-02-20 16:41:00,52.2,18.3,29.98,SW,231,1.0,1.0,26,0.00,,,0.00,Wunderground v.1.15,2013-02-20 21:41:00,
2013-02-20 16:45:00,52.2,18.3,29.98,WNW,301,1.0,3.0,26,0.00,,,0.00,Wunderground v.1.15,2013-02-20 21:45:00,
2013-02-20 16:46:00,52.2,17.4,29.98,SW,226,1.0,3.0,25,0.00,,,0.00,Wunderground v.1.15,2013-02-20 21:46:00,
2013-02-20 16:50:00,52.2,18.3,29.98,NE,34,2.0,2.0,26,0.00,,,0.00,Wunderground v.1.15,2013-02-20 21:50:00,
2013-02-20 16:51:00,52.2,17.4,29.98,West,271,3.0,3.0,25,0.00,,,0.00,Wunderground v.1.15,2013-02-20 21:51:00,
2013-02-20 16:52:00,52.1,17.3,29.98,WSW,258,0.0,3.0,25,0.00,,,0.00,Wunderground v.1.15,2013-02-20 21:52:00,
2013-02-20 16:55:00,52.1,18.2,29.98,SSW,211,2.0,3.0,26,0.00,,,0.00,Wunderground v.1.15,2013-02-20 21:55:00,
2013-02-20 16:56:00,52.1,18.2,29.98,WSW,239,1.0,3.0,26,0.00,,,0.00,Wunderground v.1.15,2013-02-20 21:56:00,
2013-02-20 16:57:00,52.1,18.2,29.98,South,186,1.0,3.0,26,0.00,,,0.00,Wunderground v.1.15,2013-02-20 21:57:00,
2013-02-20 17:00:00,52.1,18.2,29.98,SSW,212,0.0,2.0,26,0.00,,,0.00,Wunderground v.1.15,2013-02-20 22:00:00,
2013-02-20 17:01:00,52.1,18.2,29.98,SSW,209,0.0,2.0,26,0.00,,,0.00,Wunderground v.1.15,2013-02-20 22:01:00,
2013-02-20 17:02:00,52.1,18.2,29.98,SSW,193,1.0,2.0,26,0.00,,,0.00,Wunderground v.1.15,2013-02-20 22:02:00,
2013-02-20 17:05:00,52.1,18.2,29.98,SSW,195,1.0,2.0,26,0.00,,,0.00,Wunderground v.1.15,2013-02-20 22:05:00,
2013-02-20 17:06:00,52.1,18.2,29.98,SSW,195,0.0,2.0,26,0.00,,,0.00,Wunderground v.1.15,2013-02-20 22:06:00,
2013-02-20 17:07:00,52.1,18.2,29.98,SW,236,2.0,2.0,26,0.00,,,0.00,Wunderground v.1.15,2013-02-20 22:07:00,
2013-02-20 17:11:00,52.2,18.3,29.99,South,186,0.0,1.0,26,0.00,,,0.00,Wunderground v.1.15,2013-02-20 22:11:00,
2013-02-20 17:12:00,52.2,17.4,29.99,WSW,247,2.0,2.0,25,0.00,,,0.00,Wunderground v.1.15,2013-02-20 22:12:00,
2013-02-20 17:16:00,52.2,18.3,29.99,WNW,293,2.0,3.0,26,0.00,,,0.00,Wunderground v.1.15,2013-02-20 22:16:00,
2013-02-20 17:17:00,52.2,18.3,29.99,North,360,0.0,3.0,26,0.00,,,0.00,Wunderground v.1.15,2013-02-20 22:17:00,
2013-02-20 17:18:00,52.1,18.2,29.99,North,359,0.0,3.0,26,0.00,,,0.00,Wunderground v.1.15,2013-02-20 22:18:00,
2013-02-20 17:21:00,51.9,18.9,29.99,South,190,0.0,1.0,27,0.00,,,0.00,Wunderground v.1.15,2013-02-20 22:21:00,
2013-02-20 17:22:00,51.8,18.8,29.99,SW,214,0.0,1.0,27,0.00,,,0.00,Wunderground v.1.15,2013-02-20 22:22:00,
2013-02-20 17:23:00,51.8,19.7,29.99,SW,214,1.0,1.0,28,0.00,,,0.00,Wunderground v.1.15,2013-02-20 22:23:00,
2013-02-20 17:26:00,51.6,19.5,29.99,SW,214,0.0,1.0,28,0.00,,,0.00,Wunderground v.1.15,2013-02-20 22:26:00,
2013-02-20 17:27:00,51.5,19.4,29.99,SW,214,1.0,1.0,28,0.00,,,0.00,Wunderground v.1.15,2013-02-20 22:27:00,
2013-02-20 17:28:00,51.4,19.3,29.99,SW,214,0.0,1.0,28,0.00,,,0.00,Wunderground v.1.15,2013-02-20 22:28:00,
2013-02-20 17:31:00,51.2,20.0,29.99,SW,214,0.0,0.0,29,0.00,,,0.00,Wunderground v.1.15,2013-02-20 22:31:00,
2013-02-20 17:32:00,51.1,19.9,29.99,SW,214,0.0,0.0,29,0.00,,,0.00,Wunderground v.1.15,2013-02-20 22:32:00,
2013-02-20 17:33:00,51.0,19.8,29.99,SW,214,0.0,0.0,29,0.00,,,0.00,Wunderground v.1.15,2013-02-20 22:33:00,
2013-02-20 17:36:00,50.8,19.6,30.00,WSW,242,0.0,1.0,29,0.00,,,0.00,Wunderground v.1.15,2013-02-20 22:36:00,
2013-02-20 17:37:00,50.8,19.6,30.00,WSW,242,0.0,1.0,29,0.00,,,0.00,Wunderground v.1.15,2013-02-20 22:37:00,
2013-02-20 17:39:00,50.6,19.5,30.00,SW,232,0.0,1.0,29,0.00,,,0.00,Wunderground v.1.15,2013-02-20 22:39:00,
2013-02-20 17:42:00,50.4,19.3,30.00,SW,231,0.0,1.0,29,0.00,,,0.00,Wunderground v.1.15,2013-02-20 22:42:00,
2013-02-20 17:44:00,50.3,20.0,30.00,SW,231,0.0,1.0,30,0.00,,,0.00,Wunderground v.1.15,2013-02-20 22:44:00,
2013-02-20 17:47:00,50.1,19.8,30.00,SW,231,0.0,1.0,30,0.00,,,0.00,Wunderground v.1.15,2013-02-20 22:47:00,
2013-02-20 17:48:00,50.0,18.9,30.00,SW,232,0.0,1.0,29,0.00,,,0.00,Wunderground v.1.15,2013-02-20 22:48:00,
2013-02-20 17:49:00,50.0,21.3,30.00,SW,232,0.0,1.0,32,0.00,,,0.00,Wunderground v.1.15,2013-02-20 22:49:00,
2013-02-20 17:52:00,49.7,20.2,30.00,SW,232,0.0,0.0,31,0.00,,,0.00,Wunderground v.1.15,2013-02-20 22:52:00,
2013-02-20 17:53:00,49.6,20.9,30.00,SW,232,0.0,0.0,32,0.00,,,0.00,Wunderground v.1.15,2013-02-20 22:53:00,
2013-02-20 17:54:00,49.5,20.1,30.00,SW,232,0.0,0.0,31,0.00,,,0.00,Wunderground v.1.15,2013-02-20 22:54:00,
2013-02-20 17:57:00,49.2,20.6,30.00,SW,232,0.0,0.0,32,0.00,,,0.00,Wunderground v.1.15,2013-02-20 22:57:00,
2013-02-20 17:58:00,49.1,20.5,30.00,SW,232,0.0,0.0,32,0.00,,,0.00,Wunderground v.1.15,2013-02-20 22:58:00,
2013-02-20 17:59:00,49.1,20.5,30.00,SW,232,0.0,0.0,32,0.00,,,0.00,Wunderground v.1.15,2013-02-20 22:59:00,
2013-02-20 18:02:00,48.7,20.1,30.00,SW,232,0.0,0.0,32,0.00,,,0.00,Wunderground v.1.15,2013-02-20 23:02:00,
2013-02-20 18:03:00,48.7,20.1,30.00,SW,232,0.0,0.0,32,0.00,,,0.00,Wunderground v.1.15,2013-02-20 23:03:00,
2013-02-20 18:04:00,48.6,20.0,30.00,SW,232,0.0,0.0,32,0.00,,,0.00,Wunderground v.1.15,2013-02-20 23:04:00,
2013-02-20 18:08:00,48.3,20.5,30.00,SW,232,0.0,0.0,33,0.00,,,0.00,Wunderground v.1.15,2013-02-20 23:08:00,
2013-02-20 18:09:00,48.2,19.7,30.00,SW,232,0.0,0.0,32,0.00,,,0.00,Wunderground v.1.15,2013-02-20 23:09:00,
2013-02-20 18:13:00,47.9,19.4,30.00,SW,232,0.0,0.0,32,0.00,,,0.00,Wunderground v.1.15,2013-02-20 23:13:00,
2013-02-20 18:14:00,47.8,20.1,30.00,SW,232,0.0,0.0,33,0.00,,,0.00,Wunderground v.1.15,2013-02-20 23:14:00,
2013-02-20 18:18:00,47.4,21.1,30.00,SW,231,0.0,0.0,35,0.00,,,0.00,Wunderground v.1.15,2013-02-20 23:18:00,
2013-02-20 18:19:00,47.2,20.9,30.00,SW,232,0.0,0.0,35,0.00,,,0.00,Wunderground v.1.15,2013-02-20 23:19:00,
2013-02-20 18:20:00,47.1,21.5,30.01,SW,231,0.0,0.0,36,0.00,,,0.00,Wunderground v.1.15,2013-02-20 23:20:00,
2013-02-20 18:23:00,46.8,21.2,30.01,SW,232,0.0,0.0,36,0.00,,,0.00,Wunderground v.1.15,2013-02-20 23:23:00,
2013-02-20 18:24:00,46.7,21.8,30.01,SW,231,0.0,0.0,37,0.00,,,0.00,Wunderground v.1.15,2013-02-20 23:24:00,
2013-02-20 18:25:00,46.6,21.7,30.01,SW,231,0.0,0.0,37,0.00,,,0.00,Wunderground v.1.15,2013-02-20 23:25:00,
2013-02-20 18:28:00,46.3,21.4,30.01,SW,232,0.0,0.0,37,0.00,,,0.00,Wunderground v.1.15,2013-02-20 23:28:00,
2013-02-20 18:29:00,46.2,20.7,30.01,SW,232,0.0,0.0,36,0.00,,,0.00,Wunderground v.1.15,2013-02-20 23:29:00,
2013-02-20 18:30:00,46.1,20.6,30.01,SW,231,0.0,0.0,36,0.00,,,0.00,Wunderground v.1.15,2013-02-20 23:30:00,
2013-02-20 18:33:00,45.7,21.5,30.01,SW,232,0.0,0.0,38,0.00,,,0.00,Wunderground v.1.15,2013-02-20 23:33:00,
2013-02-20 18:34:00,45.7,21.5,30.01,SW,231,0.0,0.0,38,0.00,,,0.00,Wunderground v.1.15,2013-02-20 23:34:00,
2013-02-20 18:35:00,45.6,22.0,30.01,SW,231,0.0,0.0,39,0.00,,,0.00,Wunderground v.1.15,2013-02-20 23:35:00,
2013-02-20 18:38:00,45.1,22.2,30.01,SW,231,0.0,0.0,40,0.00,,,0.00,Wunderground v.1.15,2013-02-20 23:38:00,
2013-02-20 18:39:00,45.1,22.2,30.02,SW,231,0.0,0.0,40,0.00,,,0.00,Wunderground v.1.15,2013-02-20 23:39:00,
2013-02-20 18:40:00,44.9,22.0,30.02,SW,232,0.0,0.0,40,0.00,,,0.00,Wunderground v.1.15,2013-02-20 23:40:00,
2013-02-20 18:44:00,44.4,22.7,30.02,SW,232,0.0,0.0,42,0.00,,,0.00,Wunderground v.1.15,2013-02-20 23:44:00,
2013-02-20 18:45:00,44.2,22.5,30.02,SW,232,0.0,0.0,42,0.00,,,0.00,Wunderground v.1.15,2013-02-20 23:45:00,
2013-02-20 18:49:00,43.9,23.4,30.02,SW,232,0.0,0.0,44,0.00,,,0.00,Wunderground v.1.15,2013-02-20 23:49:00,
2013-02-20 18:50:00,43.7,23.2,30.02,SW,232,0.0,0.0,44,0.00,,,0.00,Wunderground v.1.15,2013-02-20 23:50:00,
2013-02-20 18:54:00,43.4,23.4,30.02,SW,231,0.0,0.0,45,0.00,,,0.00,Wunderground v.1.15,2013-02-20 23:54:00,
2013-02-20 18:55:00,43.3,22.8,30.02,SW,231,0.0,0.0,44,0.00,,,0.00,Wunderground v.1.15,2013-02-20 23:55:00,
2013-02-20 18:59:00,42.9,23.5,30.03,SW,232,0.0,0.0,46,0.00,,,0.00,Wunderground v.1.15,2013-02-20 23:59:00,
2013-02-20 19:00:00,42.9,24.0,30.03,SW,231,0.0,0.0,47,0.00,,,0.00,Wunderground v.1.15,2013-02-21 00:00:00,
2013-02-20 19:04:00,42.6,24.3,30.03,SW,232,0.0,0.0,48,0.00,,,0.00,Wunderground v.1.15,2013-02-21 00:04:00,
2013-02-20 19:05:00,42.5,24.2,30.03,SW,232,0.0,0.0,48,0.00,,,0.00,Wunderground v.1.15,2013-02-21 00:05:00,
2013-02-20 19:06:00,42.5,24.2,30.03,SW,232,0.0,0.0,48,0.00,,,0.00,Wunderground v.1.15,2013-02-21 00:06:00,
2013-02-20 19:09:00,42.3,24.0,30.03,SW,232,0.0,0.0,48,0.00,,,0.00,Wunderground v.1.15,2013-02-21 00:09:00,
2013-02-20 19:10:00,42.2,23.9,30.03,SW,232,0.0,0.0,48,0.00,,,0.00,Wunderground v.1.15,2013-02-21 00:10:00,
2013-02-20 19:11:00,42.2,23.9,30.03,SW,232,0.0,0.0,48,0.00,,,0.00,Wunderground v.1.15,2013-02-21 00:11:00,
2013-02-20 19:14:00,41.9,24.1,30.03,SW,232,0.0,0.0,49,0.00,,,0.00,Wunderground v.1.15,2013-02-21 00:14:00,
2013-02-20 19:15:00,41.7,24.4,30.03,SW,232,0.0,0.0,50,0.00,,,0.00,Wunderground v.1.15,2013-02-21 00:15:00,
2013-02-20 19:16:00,41.7,24.4,30.03,SW,231,0.0,0.0,50,0.00,,,0.00,Wunderground v.1.15,2013-02-21 00:16:00,
2013-02-20 19:20:00,41.3,24.0,30.03,SW,232,0.0,0.0,50,0.00,,,0.00,Wunderground v.1.15,2013-02-21 00:20:00,
2013-02-20 19:21:00,41.3,24.0,30.03,SW,232,0.0,0.0,50,0.00,,,0.00,Wunderground v.1.15,2013-02-21 00:21:00,
2013-02-20 19:25:00,41.2,24.9,30.03,SW,215,0.0,1.0,52,0.00,,,0.00,Wunderground v.1.15,2013-02-21 00:25:00,
2013-02-20 19:26:00,41.2,24.4,30.03,SW,215,0.0,1.0,51,0.00,,,0.00,Wunderground v.1.15,2013-02-21 00:26:00,
2013-02-20 19:30:00,41.1,25.3,30.03,SW,215,0.0,0.0,53,0.00,,,0.00,Wunderground v.1.15,2013-02-21 00:30:00,
2013-02-20 19:31:00,41.0,24.7,30.03,SW,215,0.0,0.0,52,0.00,,,0.00,Wunderground v.1.15,2013-02-21 00:31:00,
2013-02-20 19:35:00,40.7,24.4,30.03,SW,214,0.0,0.0,52,0.00,,,0.00,Wunderground v.1.15,2013-02-21 00:35:00,
2013-02-20 19:36:00,40.6,24.8,30.03,SW,214,0.0,0.0,53,0.00,,,0.00,Wunderground v.1.15,2013-02-21 00:36:00,
2013-02-20 19:40:00,40.2,24.4,30.03,SW,215,0.0,0.0,53,0.00,,,0.00,Wunderground v.1.15,2013-02-21 00:40:00,
2013-02-20 19:41:00,40.1,24.3,30.03,SW,215,0.0,0.0,53,0.00,,,0.00,Wunderground v.1.15,2013-02-21 00:41:00,
2013-02-20 19:42:00,40.0,24.2,30.03,SW,215,0.0,0.0,53,0.00,,,0.00,Wunderground v.1.15,2013-02-21 00:42:00,
2013-02-20 19:45:00,39.7,24.8,30.03,SW,215,1.0,1.0,55,0.00,,,0.00,Wunderground v.1.15,2013-02-21 00:45:00,
2013-02-20 19:46:00,39.7,25.3,30.04,SW,215,1.0,1.0,56,0.00,,,0.00,Wunderground v.1.15,2013-02-21 00:46:00,
2013-02-20 19:47:00,39.7,25.3,30.04,SW,215,1.0,1.0,56,0.00,,,0.00,Wunderground v.1.15,2013-02-21 00:47:00,
2013-02-20 19:50:00,39.5,25.1,30.04,SW,215,0.0,1.0,56,0.00,,,0.00,Wunderground v.1.15,2013-02-21 00:50:00,
2013-02-20 19:51:00,39.4,25.0,30.04,SW,214,0.0,1.0,56,0.00,,,0.00,Wunderground v.1.15,2013-02-21 00:51:00,
2013-02-20 19:52:00,39.4,25.0,30.04,SW,215,0.0,1.0,56,0.00,,,0.00,Wunderground v.1.15,2013-02-21 00:52:00,
2013-02-20 19:55:00,39.2,24.8,30.04,SW,215,0.0,1.0,56,0.00,,,0.00,Wunderground v.1.15,2013-02-21 00:55:00,
2013-02-20 19:56:00,39.2,24.8,30.04,SW,214,0.0,1.0,56,0.00,,,0.00,Wunderground v.1.15,2013-02-21 00:56:00,
2013-02-20 19:57:00,39.2,24.8,30.04,SW,215,0.0,1.0,56,0.00,,,0.00,Wunderground v.1.15,2013-02-21 00:57:00,
2013-02-20 20:01:00,39.0,24.2,30.04,SW,215,0.0,0.0,55,0.00,,,0.00,Wunderground v.1.15,2013-02-21 01:01:00,
2013-02-20 20:02:00,39.0,24.2,30.04,SW,215,1.0,1.0,55,0.00,,,0.00,Wunderground v.1.15,2013-02-21 01:02:00,
2013-02-20 20:06:00,38.9,24.9,30.04,SW,215,0.0,1.0,57,0.00,,,0.00,Wunderground v.1.15,2013-02-21 01:06:00,
2013-02-20 20:07:00,38.9,24.9,30.04,SW,214,1.0,1.0,57,0.00,,,0.00,Wunderground v.1.15,2013-02-21 01:07:00,
2013-02-20 20:11:00,38.7,25.2,30.05,NNW,343,0.0,2.0,58,0.00,,,0.00,Wunderground v.1.15,2013-02-21 01:11:00,
2013-02-20 20:12:00,38.7,24.8,30.05,NNW,343,0.0,2.0,57,0.00,,,0.00,Wunderground v.1.15,2013-02-21 01:12:00,
2013-02-20 20:16:00,38.5,24.1,30.05,NNW,343,0.0,2.0,56,0.00,,,0.00,Wunderground v.1.15,2013-02-21 01:16:00,
2013-02-20 20:17:00,38.5,24.6,30.05,NNW,343,0.0,2.0,57,0.00,,,0.00,Wunderground v.1.15,2013-02-21 01:17:00,
2013-02-20 20:21:00,38.3,24.4,30.05,NNW,343,0.0,0.0,57,0.00,,,0.00,Wunderground v.1.15,2013-02-21 01:21:00,
2013-02-20 20:23:00,38.3,24.8,30.05,NNW,343,0.0,0.0,58,0.00,,,0.00,Wunderground v.1.15,2013-02-21 01:23:00,
2013-02-20 20:26:00,38.1,25.0,30.05,NNW,342,0.0,1.0,59,0.00,,,0.00,Wunderground v.1.15,2013-02-21 01:26:00,
2013-02-20 20:28:00,37.9,25.2,30.05,NNW,342,0.0,1.0,60,0.00,,,0.00,Wunderground v.1.15,2013-02-21 01:28:00,
2013-02-20 20:31:00,37.7,25.1,30.05,NNW,342,0.0,0.0,60,0.00,,,0.00,Wunderground v.1.15,2013-02-21 01:31:00,
2013-02-20 20:32:00,37.7,25.1,30.05,NNW,343,0.0,0.0,60,0.00,,,0.00,Wunderground v.1.15,2013-02-21 01:32:00,
2013-02-20 20:33:00,37.6,25.0,30.05,NNW,343,0.0,0.0,60,0.00,,,0.00,Wunderground v.1.15,2013-02-21 01:33:00,
2013-02-20 20:36:00,37.4,24.8,30.05,NNW,343,0.0,0.0,60,0.00,,,0.00,Wunderground v.1.15,2013-02-21 01:36:00,
2013-02-20 20:37:00,37.4,24.8,30.05,NNW,343,0.0,0.0,60,0.00,,,0.00,Wunderground v.1.15,2013-02-21 01:37:00,
2013-02-20 20:38:00,37.3,24.7,30.05,NNW,343,0.0,0.0,60,0.00,,,0.00,Wunderground v.1.15,2013-02-21 01:38:00,
2013-02-20 20:39:00,37.3,24.3,30.05,NNW,342,0.0,0.0,59,0.00,,,0.00,Wunderground v.1.15,2013-02-21 01:39:00,
2013-02-20 20:42:00,37.2,25.4,30.05,NNW,341,0.0,1.0,62,0.00,,,0.00,Wunderground v.1.15,2013-02-21 01:42:00,
2013-02-20 20:43:00,37.1,25.3,30.06,NNW,342,0.0,1.0,62,0.00,,,0.00,Wunderground v.1.15,2013-02-21 01:43:00,
2013-02-20 20:44:00,37.1,25.7,30.06,NNW,342,0.0,1.0,63,0.00,,,0.00,Wunderground v.1.15,2013-02-21 01:44:00,
2013-02-20 20:47:00,36.9,25.9,30.06,NNW,338,0.0,1.0,64,0.00,,,0.00,Wunderground v.1.15,2013-02-21 01:47:00,
2013-02-20 20:48:00,36.8,25.8,30.06,NNW,338,0.0,1.0,64,0.00,,,0.00,Wunderground v.1.15,2013-02-21 01:48:00,
2013-02-20 20:49:00,36.8,26.1,30.06,NNW,338,0.0,1.0,65,0.00,,,0.00,Wunderground v.1.15,2013-02-21 01:49:00,
2013-02-20 20:52:00,36.7,26.0,30.06,NNW,338,0.0,0.0,65,0.00,,,0.00,Wunderground v.1.15,2013-02-21 01:52:00,
2013-02-20 20:53:00,36.5,25.8,30.06,NNW,337,0.0,0.0,65,0.00,,,0.00,Wunderground v.1.15,2013-02-21 01:53:00,
2013-02-20 20:54:00,36.5,25.5,30.06,NNW,338,0.0,0.0,64,0.00,,,0.00,Wunderground v.1.15,2013-02-21 01:54:00,
2013-02-20 20:57:00,36.4,25.7,30.06,NNW,338,0.0,0.0,65,0.00,,,0.00,Wunderground v.1.15,2013-02-21 01:57:00,
2013-02-20 20:58:00,36.4,25.7,30.07,NNW,338,0.0,1.0,65,0.00,,,0.00,Wunderground v.1.15,2013-02-21 01:58:00,
2013-02-20 20:59:00,36.3,25.7,30.07,NNW,338,0.0,1.0,65,0.00,,,0.00,Wunderground v.1.15,2013-02-21 01:59:00,
2013-02-20 21:02:00,36.1,25.8,30.06,NNW,338,0.0,0.0,66,0.00,,,0.00,Wunderground v.1.15,2013-02-21 02:02:00,
2013-02-20 21:03:00,35.9,25.6,30.07,NNW,338,0.0,0.0,66,0.00,,,0.00,Wunderground v.1.15,2013-02-21 02:03:00,
2013-02-20 21:04:00,35.9,25.3,30.07,NNW,338,0.0,0.0,65,0.00,,,0.00,Wunderground v.1.15,2013-02-21 02:04:00,
2013-02-20 21:07:00,35.7,25.4,30.07,NNW,338,0.0,1.0,66,0.00,,,0.00,Wunderground v.1.15,2013-02-21 02:07:00,
2013-02-20 21:08:00,35.6,25.4,30.07,NNW,338,0.0,1.0,66,0.00,,,0.00,Wunderground v.1.15,2013-02-21 02:08:00,
2013-02-20 21:09:00,35.6,25.4,30.07,NNW,338,0.0,1.0,66,0.00,,,0.00,Wunderground v.1.15,2013-02-21 02:09:00,
2013-02-20 21:12:00,35.4,25.5,30.07,NNW,338,0.0,0.0,67,0.00,,,0.00,Wunderground v.1.15,2013-02-21 02:12:00,
2013-02-20 21:14:00,35.3,25.8,30.08,NNW,338,0.0,0.0,68,0.00,,,0.00,Wunderground v.1.15,2013-02-21 02:14:00,
2013-02-20 21:17:00,35.1,25.6,30.08,NNW,338,0.0,0.0,68,0.00,,,0.00,Wunderground v.1.15,2013-02-21 02:17:00,
2013-02-20 21:19:00,35.1,25.6,30.08,NNW,338,0.0,0.0,68,0.00,,,0.00,Wunderground v.1.15,2013-02-21 02:19:00,
2013-02-20 21:22:00,35.0,25.5,30.08,NNW,338,0.0,1.0,68,0.00,,,0.00,Wunderground v.1.15,2013-02-21 02:22:00,
2013-02-20 21:24:00,35.1,25.6,30.08,NNW,338,1.0,1.0,68,0.00,,,0.00,Wunderground v.1.15,2013-02-21 02:24:00,
2013-02-20 21:27:00,35.1,25.6,30.08,NNW,337,0.0,1.0,68,0.00,,,0.00,Wunderground v.1.15,2013-02-21 02:27:00,
2013-02-20 21:29:00,35.1,24.9,30.08,NNW,338,0.0,1.0,66,0.00,,,0.00,Wunderground v.1.15,2013-02-21 02:29:00,
2013-02-20 21:33:00,35.3,23.6,30.08,NNW,339,0.0,1.0,62,0.00,,,0.00,Wunderground v.1.15,2013-02-21 02:33:00,
2013-02-20 21:34:00,35.5,23.4,30.08,NNW,339,0.0,1.0,61,0.00,,,0.00,Wunderground v.1.15,2013-02-21 02:34:00,
2013-02-20 21:38:00,35.8,22.9,30.09,NNW,338,0.0,1.0,59,0.00,,,0.00,Wunderground v.1.15,2013-02-21 02:38:00,
2013-02-20 21:39:00,35.9,23.7,30.09,NNW,338,0.0,1.0,61,0.00,,,0.00,Wunderground v.1.15,2013-02-21 02:39:00,
2013-02-20 21:43:00,35.9,24.5,30.10,NNW,339,0.0,1.0,63,0.00,,,0.00,Wunderground v.1.15,2013-02-21 02:43:00,
2013-02-20 21:44:00,35.9,24.1,30.10,NNW,338,0.0,1.0,62,0.00,,,0.00,Wunderground v.1.15,2013-02-21 02:44:00,
2013-02-20 21:45:00,35.9,24.1,30.10,NNW,339,0.0,1.0,62,0.00,,,0.00,Wunderground v.1.15,2013-02-21 02:45:00,
2013-02-20 21:48:00,35.8,25.2,30.09,NNW,339,0.0,1.0,65,0.00,,,0.00,Wunderground v.1.15,2013-02-21 02:48:00,
2013-02-20 21:49:00,35.6,24.2,30.09,NNW,338,0.0,1.0,63,0.00,,,0.00,Wunderground v.1.15,2013-02-21 02:49:00,
2013-02-20 21:50:00,35.6,23.9,30.09,NNW,338,0.0,0.0,62,0.00,,,0.00,Wunderground v.1.15,2013-02-21 02:50:00,
2013-02-20 21:53:00,35.4,23.3,30.09,NNW,338,0.0,1.0,61,0.00,,,0.00,Wunderground v.1.15,2013-02-21 02:53:00,
2013-02-20 21:54:00,35.5,22.6,30.09,NNW,338,0.0,1.0,59,0.00,,,0.00,Wunderground v.1.15,2013-02-21 02:54:00,
2013-02-20 21:55:00,35.5,22.6,30.09,NNW,338,0.0,1.0,59,0.00,,,0.00,Wunderground v.1.15,2013-02-21 02:55:00,
2013-02-20 21:58:00,35.9,23.7,30.09,NNW,338,0.0,1.0,61,0.00,,,0.00,Wunderground v.1.15,2013-02-21 02:58:00,
2013-02-20 22:00:00,35.9,24.1,30.09,NNW,337,0.0,1.0,62,0.00,,,0.00,Wunderground v.1.15,2013-02-21 03:00:00,
2013-02-20 22:03:00,35.7,24.7,30.09,NNW,338,0.0,0.0,64,0.00,,,0.00,Wunderground v.1.15,2013-02-21 03:03:00,
2013-02-20 22:05:00,35.6,24.6,30.09,North,353,3.0,3.0,64,0.00,,,0.00,Wunderground v.1.15,2013-02-21 03:05:00,
2013-02-20 22:06:00,35.6,24.6,30.10,North,351,1.0,3.0,64,0.00,,,0.00,Wunderground v.1.15,2013-02-21 03:06:00,
2013-02-20 22:08:00,36.1,19.7,30.10,NNE,30,2.0,4.0,51,0.00,,,0.00,Wunderground v.1.15,2013-02-21 03:08:00,
2013-02-20 22:10:00,36.7,20.3,30.10,NE,34,2.0,4.0,51,0.00,,,0.00,Wunderground v.1.15,2013-02-21 03:10:00,
2013-02-20 22:11:00,37.0,19.6,30.10,North,4,2.0,7.0,49,0.00,,,0.00,Wunderground v.1.15,2013-02-21 03:11:00,
2013-02-20 22:14:00,37.8,18.8,30.10,NNW,327,2.0,7.0,46,0.00,,,0.00,Wunderground v.1.15,2013-02-21 03:14:00,
2013-02-20 22:15:00,38.0,18.5,30.10,North,6,2.0,7.0,45,0.00,,,0.00,Wunderground v.1.15,2013-02-21 03:15:00,
2013-02-20 22:16:00,38.2,18.7,30.10,North,6,3.0,7.0,45,0.00,,,0.00,Wunderground v.1.15,2013-02-21 03:16:00,
2013-02-20 22:19:00,38.6,18.5,30.10,NE,34,1.0,7.0,44,0.00,,,0.00,Wunderground v.1.15,2013-02-21 03:19:00,
2013-02-20 22:20:00,38.7,18.6,30.10,NNE,30,0.0,2.0,44,0.00,,,0.00,Wunderground v.1.15,2013-02-21 03:20:00,
2013-02-20 22:22:00,38.8,18.2,30.10,NW,326,2.0,3.0,43,0.00,,,0.00,Wunderground v.1.15,2013-02-21 03:22:00,
2013-02-20 22:24:00,38.9,17.7,30.10,NE,54,1.0,4.0,42,0.00,,,0.00,Wunderground v.1.15,2013-02-21 03:24:00,
2013-02-20 22:25:00,39.0,17.3,30.10,NNE,26,1.0,4.0,41,0.00,,,0.00,Wunderground v.1.15,2013-02-21 03:25:00,
2013-02-20 22:27:00,39.1,17.4,30.10,NNE,23,2.0,4.0,41,0.00,,,0.00,Wunderground v.1.15,2013-02-21 03:27:00,
2013-02-20 22:29:00,39.2,16.9,30.10,NNE,32,3.0,5.0,40,0.00,,,0.00,Wunderground v.1.15,2013-02-21 03:29:00,
2013-02-20 22:30:00,39.3,17.0,30.10,NNE,23,3.0,3.0,40,0.00,,,0.00,Wunderground v.1.15,2013-02-21 03:30:00,
2013-02-20 22:32:00,39.3,17.5,30.10,NNE,24,2.0,3.0,41,0.00,,,0.00,Wunderground v.1.15,2013-02-21 03:32:00,
2013-02-20 22:34:00,39.3,16.4,30.10,North,6,1.0,5.0,39,0.00,,,0.00,Wunderground v.1.15,2013-02-21 03:34:00,
2013-02-20 22:35:00,39.3,16.4,30.10,NNE,30,3.0,5.0,39,0.00,,,0.00,Wunderground v.1.15,2013-02-21 03:35:00,
2013-02-20 22:37:00,39.5,16.0,30.10,North,11,1.0,5.0,38,0.00,,,0.00,Wunderground v.1.15,2013-02-21 03:37:00,
2013-02-20 22:39:00,39.5,16.0,30.10,North,11,1.0,5.0,38,0.00,,,0.00,Wunderground v.1.15,2013-02-21 03:39:00,
2013-02-20 22:40:00,39.5,16.0,30.10,NNE,33,2.0,2.0,38,0.00,,,0.00,Wunderground v.1.15,2013-02-21 03:40:00,
2013-02-20 22:42:00,39.5,16.0,30.10,NNE,31,1.0,3.0,38,0.00,,,0.00,Wunderground v.1.15,2013-02-21 03:42:00,
2013-02-20 22:44:00,39.5,16.0,30.10,NNE,12,1.0,3.0,38,0.00,,,0.00,Wunderground v.1.15,2013-02-21 03:44:00,
2013-02-20 22:45:00,39.5,16.0,30.09,NNE,12,2.0,3.0,38,0.00,,,0.00,Wunderground v.1.15,2013-02-21 03:45:00,
2013-02-20 22:47:00,39.4,16.5,30.09,NNE,30,0.0,3.0,39,0.00,,,0.00,Wunderground v.1.15,2013-02-21 03:47:00,
2013-02-20 22:49:00,39.3,16.4,30.10,NNE,30,0.0,3.0,39,0.00,,,0.00,Wunderground v.1.15,2013-02-21 03:49:00,
2013-02-20 22:50:00,39.2,16.3,30.10,NNE,30,0.0,1.0,39,0.00,,,0.00,Wunderground v.1.15,2013-02-21 03:50:00,
2013-02-20 22:53:00,39.0,16.1,30.10,NNE,30,0.0,1.0,39,0.00,,,0.00,Wunderground v.1.15,2013-02-21 03:53:00,
2013-02-20 22:54:00,38.9,16.6,30.10,NNE,30,1.0,1.0,40,0.00,,,0.00,Wunderground v.1.15,2013-02-21 03:54:00,
2013-02-20 22:55:00,38.9,16.6,30.09,NNE,30,0.0,1.0,40,0.00,,,0.00,Wunderground v.1.15,2013-02-21 03:55:00,
2013-02-20 22:56:00,38.8,15.9,30.09,NNE,31,0.0,1.0,39,0.00,,,0.00,Wunderground v.1.15,2013-02-21 03:56:00,
2013-02-20 22:58:00,38.7,15.8,30.10,North,11,1.0,3.0,39,0.00,,,0.00,Wunderground v.1.15,2013-02-21 03:58:00,
2013-02-20 22:59:00,38.8,15.9,30.10,NNE,29,2.0,3.0,39,0.00,,,0.00,Wunderground v.1.15,2013-02-21 03:59:00,
2013-02-20 23:00:00,38.8,16.5,30.10,NNE,27,1.0,1.0,40,0.00,,,0.00,Wunderground v.1.15,2013-02-21 04:00:00,
2013-02-20 23:01:00,38.8,15.9,30.10,NNE,24,2.0,2.0,39,0.00,,,0.00,Wunderground v.1.15,2013-02-21 04:01:00,
2013-02-20 23:03:00,38.7,15.8,30.09,NNE,32,1.0,6.0,39,0.00,,,0.00,Wunderground v.1.15,2013-02-21 04:03:00,
2013-02-20 23:05:00,38.7,17.0,30.09,North,351,1.0,6.0,41,0.00,,,0.00,Wunderground v.1.15,2013-02-21 04:05:00,
2013-02-20 23:06:00,38.7,17.0,30.09,North,358,1.0,6.0,41,0.00,,,0.00,Wunderground v.1.15,2013-02-21 04:06:00,
2013-02-20 23:09:00,38.5,16.8,30.10,North,1,0.0,6.0,41,0.00,,,0.00,Wunderground v.1.15,2013-02-21 04:09:00,
2013-02-20 23:10:00,38.4,16.7,30.10,North,1,1.0,1.0,41,0.00,,,0.00,Wunderground v.1.15,2013-02-21 04:10:00,
2013-02-20 23:11:00,38.3,17.2,30.10,NNW,334,1.0,1.0,42,0.00,,,0.00,Wunderground v.1.15,2013-02-21 04:11:00,
2013-02-20 23:14:00,38.2,16.5,30.10,NNE,13,2.0,2.0,41,0.00,,,0.00,Wunderground v.1.15,2013-02-21 04:14:00,
2013-02-20 23:15:00,38.2,16.5,30.10,North,5,1.0,3.0,41,0.00,,,0.00,Wunderground v.1.15,2013-02-21 04:15:00,
2013-02-20 23:16:00,38.2,16.5,30.10,NNE,29,2.0,3.0,41,0.00,,,0.00,Wunderground v.1.15,2013-02-21 04:16:00,
2013-02-20 23:19:00,38.1,16.4,30.10,North,9,1.0,3.0,41,0.00,,,0.00,Wunderground v.1.15,2013-02-21 04:19:00,
2013-02-20 23:20:00,38.1,17.0,30.09,North,5,2.0,2.0,42,0.00,,,0.00,Wunderground v.1.15,2013-02-21 04:20:00,
2013-02-20 23:22:00,38.0,16.4,30.09,NNE,18,1.0,3.0,41,0.00,,,0.00,Wunderground v.1.15,2013-02-21 04:22:00,
2013-02-20 23:24:00,38.0,16.4,30.09,NNE,16,3.0,4.0,41,0.00,,,0.00,Wunderground v.1.15,2013-02-21 04:24:00,
2013-02-20 23:25:00,37.9,16.8,30.10,NE,39,1.0,4.0,42,0.00,,,0.00,Wunderground v.1.15,2013-02-21 04:25:00,
2013-02-20 23:26:00,37.9,16.8,30.09,North,6,2.0,4.0,42,0.00,,,0.00,Wunderground v.1.15,2013-02-21 04:26:00,
2013-02-20 23:27:00,37.9,16.3,30.09,NNW,342,1.0,4.0,41,0.00,,,0.00,Wunderground v.1.15,2013-02-21 04:27:00,
2013-02-20 23:29:00,37.9,16.8,30.10,NNE,13,4.0,4.0,42,0.00,,,0.00,Wunderground v.1.15,2013-02-21 04:29:00,
2013-02-20 23:31:00,37.9,16.3,30.09,NNE,32,1.0,3.0,41,0.00,,,0.00,Wunderground v.1.15,2013-02-21 04:31:00,
2013-02-20 23:32:00,37.9,15.7,30.09,NE,40,2.0,3.0,40,0.00,,,0.00,Wunderground v.1.15,2013-02-21 04:32:00,
2013-02-20 23:34:00,37.9,16.3,30.09,NW,305,1.0,4.0,41,0.00,,,0.00,Wunderground v.1.15,2013-02-21 04:34:00,
2013-02-20 23:36:00,38.0,15.8,30.09,North,9,1.0,4.0,40,0.00,,,0.00,Wunderground v.1.15,2013-02-21 04:36:00,
2013-02-20 23:37:00,38.0,16.4,30.09,NE,40,1.0,4.0,41,0.00,,,0.00,Wunderground v.1.15,2013-02-21 04:37:00,
2013-02-20 23:40:00,37.9,16.3,30.09,NNE,30,1.0,4.0,41,0.00,,,0.00,Wunderground v.1.15,2013-02-21 04:40:00,
2013-02-20 23:41:00,37.8,16.2,30.09,NNW,333,1.0,3.0,41,0.00,,,0.00,Wunderground v.1.15,2013-02-21 04:41:00,
2013-02-20 23:42:00,37.8,16.2,30.09,NNE,23,1.0,3.0,41,0.00,,,0.00,Wunderground v.1.15,2013-02-21 04:42:00,
2013-02-20 23:45:00,37.7,16.6,30.09,North,356,0.0,3.0,42,0.00,,,0.00,Wunderground v.1.15,2013-02-21 04:45:00,
2013-02-20 23:46:00,37.6,16.5,30.09,North,355,1.0,3.0,42,0.00,,,0.00,Wunderground v.1.15,2013-02-21 04:46:00,
2013-02-20 23:47:00,37.5,16.5,30.09,North,355,1.0,3.0,42,0.00,,,0.00,Wunderground v.1.15,2013-02-21 04:47:00,
2013-02-20 23:50:00,37.4,16.4,30.10,NW,308,0.0,1.0,42,0.00,,,0.00,Wunderground v.1.15,2013-02-21 04:50:00,
2013-02-20 23:51:00,37.4,16.4,30.10,NW,308,0.0,1.0,42,0.00,,,0.00,Wunderground v.1.15,2013-02-21 04:51:00,
2013-02-20 23:52:00,37.3,16.8,30.10,NNW,329,1.0,1.0,43,0.00,,,0.00,Wunderground v.1.15,2013-02-21 04:52:00,
2013-02-20 23:55:00,37.2,16.2,30.10,NNE,19,1.0,2.0,42,0.00,,,0.00,Wunderground v.1.15,2013-02-21 04:55:00,
2013-02-20 23:56:00,37.2,16.2,30.09,NNE,19,2.0,4.0,42,0.00,,,0.00,Wunderground v.1.15,2013-02-21 04:56:00,
2013-02-20 23:57:00,37.2,16.2,30.09,North,1,2.0,4.0,42,0.00,,,0.00,Wunderground v.1.15,2013-02-21 04:57:00,